Observation data for Umbarger on 02/14/2020      Previous  Date  Next       Current Mesonet Observations  Soil Data  Daily Summary Page  Observations in Plain Language
KUM1 140600Z 14011KT M05/M09 A3026 RMK A01 T10531089  RH  076%=      5-min Rain = 0
KUM1 140601Z 14013KT M05/M09 A3026 RMK A01 T10531089  RH  076%=      5-min Rain = 0
KUM1 140602Z 14014KT M05/M09 A3026 RMK A01 T10531089  RH  076%=      5-min Rain = 0
KUM1 140603Z 13013KT M05/M09 A3026 RMK A01 T10531089  RH  076%=      5-min Rain = 0
KUM1 140604Z 13012KT M05/M09 A3026 RMK A01 T10521088  RH  076%=      5-min Rain = 0
KUM1 140605Z 14010KT M05/M09 A3026 RMK A01 T10521087  RH  076%=      5-min Rain = 0
KUM1 140606Z 13009KT M05/M09 A3026 RMK A01 T10531086  RH  077%=      5-min Rain = 0
KUM1 140607Z 13009KT M05/M09 A3026 RMK A01 T10521085  RH  078%=      5-min Rain = 0
KUM1 140608Z 13010KT M05/M08 A3026 RMK A01 T10521084  RH  078%=      5-min Rain = 0
KUM1 140609Z 13010KT M05/M09 A3026 RMK A01 T10521085  RH  078%=      5-min Rain = 0
KUM1 140610Z 13010KT M05/M09 A3026 RMK A01 T10531086  RH  077%=      5-min Rain = 0
KUM1 140611Z 13010KT M05/M09 A3026 RMK A01 T10531086  RH  078%=      5-min Rain = 0
KUM1 140612Z 13009KT M05/M09 A3026 RMK A01 T10531086  RH  078%=      5-min Rain = 0
KUM1 140613Z 12007KT M05/M09 A3026 RMK A01 T10531085  RH  078%=      5-min Rain = 0
KUM1 140614Z 13011KT M05/M08 A3026 RMK A01 T10531084  RH  079%=      5-min Rain = 0
KUM1 140615Z 13010KT M05/M09 A3026 RMK A01 T10541086  RH  078%=      5-min Rain = 0
KUM1 140616Z 12009KT M05/M09 A3026 RMK A01 T10541085  RH  079%=      5-min Rain = 0
KUM1 140617Z 13010KT M05/M09 A3026 RMK A01 T10541085  RH  079%=      5-min Rain = 0
KUM1 140618Z 13011KT M05/M09 A3026 RMK A01 T10541086  RH  079%=      5-min Rain = 0
KUM1 140619Z 13009KT M05/M09 A3026 RMK A01 T10541086  RH  079%=      5-min Rain = 0
KUM1 140620Z 13011KT M06/M09 A3026 RMK A01 T10551085  RH  079%=      5-min Rain = 0
KUM1 140621Z 13010KT M06/M09 A3026 RMK A01 T10551086  RH  079%=      5-min Rain = 0
KUM1 140622Z 13008KT M06/M09 A3026 RMK A01 T10551086  RH  079%=      5-min Rain = 0
KUM1 140623Z 12009KT M06/M09 A3027 RMK A01 T10551085  RH  079%=      5-min Rain = 0
KUM1 140624Z 12010KT M06/M09 A3027 RMK A01 T10551086  RH  079%=      5-min Rain = 0
KUM1 140625Z 13010KT M06/M09 A3027 RMK A01 T10551086  RH  078%=      5-min Rain = 0
KUM1 140626Z 13010KT M06/M09 A3027 RMK A01 T10551087  RH  078%=      5-min Rain = 0
KUM1 140627Z 12008KT M06/M09 A3027 RMK A01 T10551087  RH  078%=      5-min Rain = 0
KUM1 140628Z 12009KT M06/M09 A3027 RMK A01 T10551087  RH  079%=      5-min Rain = 0
KUM1 140629Z 12010KT M06/M09 A3027 RMK A01 T10551087  RH  078%=      5-min Rain = 0
KUM1 140630Z 13011KT M06/M09 A3027 RMK A01 T10561088  RH  078%=      5-min Rain = 0
KUM1 140631Z 13011KT M06/M09 A3027 RMK A01 T10561089  RH  078%=      5-min Rain = 0
KUM1 140632Z 14010KT M06/M09 A3027 RMK A01 T10561090  RH  077%=      5-min Rain = 0
KUM1 140633Z 13009KT M06/M09 A3027 RMK A01 T10561090  RH  077%=      5-min Rain = 0
KUM1 140634Z 13010KT M06/M09 A3027 RMK A01 T10561088  RH  078%=      5-min Rain = 0
KUM1 140635Z 13010KT M06/M09 A3027 RMK A01 T10561089  RH  078%=      5-min Rain = 0
KUM1 140636Z 13010KT M06/M09 A3027 RMK A01 T10561089  RH  078%=      5-min Rain = 0
KUM1 140637Z 13010KT M06/M09 A3027 RMK A01 T10561089  RH  078%=      5-min Rain = 0
KUM1 140638Z 12010KT M06/M09 A3027 RMK A01 T10561089  RH  078%=      5-min Rain = 0
KUM1 140639Z 13010KT M06/M09 A3027 RMK A01 T10561089  RH  078%=      5-min Rain = 0
KUM1 140640Z 13011KT M06/M09 A3027 RMK A01 T10561089  RH  078%=      5-min Rain = 0
KUM1 140641Z 12010KT M06/M09 A3027 RMK A01 T10571089  RH  078%=      5-min Rain = 0
KUM1 140642Z 12010KT M06/M09 A3027 RMK A01 T10571090  RH  077%=      5-min Rain = 0
KUM1 140643Z 13009KT M06/M09 A3027 RMK A01 T10571090  RH  077%=      5-min Rain = 0
KUM1 140644Z 13011KT M06/M09 A3027 RMK A01 T10571090  RH  078%=      5-min Rain = 0
KUM1 140645Z 13011KT M06/M09 A3027 RMK A01 T10571090  RH  077%=      5-min Rain = 0
KUM1 140646Z 14010KT M06/M09 A3027 RMK A01 T10571090  RH  077%=      5-min Rain = 0
KUM1 140647Z 13009KT M06/M09 A3027 RMK A01 T10571090  RH  078%=      5-min Rain = 0
KUM1 140648Z 13010KT M06/M09 A3027 RMK A01 T10571090  RH  078%=      5-min Rain = 0
KUM1 140649Z 13010KT M06/M09 A3027 RMK A01 T10571090  RH  078%=      5-min Rain = 0
KUM1 140650Z 13009KT M06/M09 A3027 RMK A01 T10581091  RH  078%=      5-min Rain = 0
KUM1 140651Z 13008KT M06/M09 A3027 RMK A01 T10581090  RH  078%=      5-min Rain = 0
KUM1 140652Z 13009KT M06/M09 A3027 RMK A01 T10581090  RH  078%=      5-min Rain = 0
KUM1 140653Z 12008KT M06/M09 A3027 RMK A01 T10571089  RH  078%=      5-min Rain = 0
KUM1 140654Z 12008KT M06/M09 A3027 RMK A01 T10571089  RH  079%=      5-min Rain = 0
KUM1 140655Z 13010KT M06/M09 A3027 RMK A01 T10571089  RH  078%=      5-min Rain = 0
KUM1 140656Z 13009KT M06/M09 A3027 RMK A01 T10571090  RH  078%=      5-min Rain = 0
KUM1 140657Z 13010KT M06/M09 A3027 RMK A01 T10571090  RH  078%=      5-min Rain = 0
KUM1 140658Z 12010KT M06/M09 A3027 RMK A01 T10581090  RH  078%=      5-min Rain = 0
KUM1 140659Z 12009KT M06/M09 A3027 RMK A01 T10581090  RH  078%=      5-min Rain = 0
KUM1 140700Z 12009KT M06/M09 A3027 RMK A01 T10571090  RH  078%=      5-min Rain = 0
KUM1 140701Z 12008KT M06/M09 A3027 RMK A01 T10581090  RH  078%=      5-min Rain = 0
KUM1 140702Z 13010KT M06/M09 A3027 RMK A01 T10581090  RH  078%=      5-min Rain = 0
KUM1 140703Z 13009KT M06/M09 A3027 RMK A01 T10581091  RH  078%=      5-min Rain = 0
KUM1 140704Z 13009KT M06/M09 A3027 RMK A01 T10581091  RH  078%=      5-min Rain = 0
KUM1 140705Z 13009KT M06/M09 A3027 RMK A01 T10591091  RH  078%=      5-min Rain = 0
KUM1 140706Z 13007KT M06/M09 A3027 RMK A01 T10591091  RH  078%=      5-min Rain = 0
KUM1 140707Z 13007KT M06/M09 A3027 RMK A01 T10591090  RH  078%=      5-min Rain = 0
KUM1 140708Z 12008KT M06/M09 A3027 RMK A01 T10581089  RH  079%=      5-min Rain = 0
KUM1 140709Z 12007KT M06/M09 A3027 RMK A01 T10581090  RH  078%=      5-min Rain = 0
KUM1 140710Z 13008KT M06/M09 A3027 RMK A01 T10591091  RH  078%=      5-min Rain = 0
KUM1 140711Z 13007KT M06/M09 A3027 RMK A01 T10591090  RH  078%=      5-min Rain = 0
KUM1 140712Z 13007KT M06/M09 A3027 RMK A01 T10581090  RH  078%=      5-min Rain = 0
KUM1 140713Z 12009KT M06/M09 A3027 RMK A01 T10581090  RH  078%=      5-min Rain = 0
KUM1 140714Z 12009KT M06/M09 A3027 RMK A01 T10591091  RH  078%=      5-min Rain = 0
KUM1 140715Z 12009KT M06/M09 A3027 RMK A01 T10591091  RH  078%=      5-min Rain = 0
KUM1 140716Z 12010KT M06/M09 A3027 RMK A01 T10591091  RH  078%=      5-min Rain = 0
KUM1 140717Z 12009KT M06/M09 A3027 RMK A01 T10591091  RH  078%=      5-min Rain = 0
KUM1 140718Z 13009KT M06/M09 A3027 RMK A01 T10601091  RH  078%=      5-min Rain = 0
KUM1 140719Z 12007KT M06/M09 A3027 RMK A01 T10591091  RH  079%=      5-min Rain = 0
KUM1 140720Z 12009KT M06/M09 A3027 RMK A01 T10591091  RH  078%=      5-min Rain = 0
KUM1 140721Z 13009KT M06/M09 A3028 RMK A01 T10591091  RH  078%=      5-min Rain = 0
KUM1 140722Z 13010KT M06/M09 A3028 RMK A01 T10591092  RH  078%=      5-min Rain = 0
KUM1 140723Z 12008KT M06/M09 A3028 RMK A01 T10591092  RH  078%=      5-min Rain = 0
KUM1 140724Z 12009KT M06/M09 A3028 RMK A01 T10601092  RH  078%=      5-min Rain = 0
KUM1 140725Z 12009KT M06/M09 A3028 RMK A01 T10591092  RH  078%=      5-min Rain = 0
KUM1 140726Z 12009KT M06/M09 A3028 RMK A01 T10601093  RH  077%=      5-min Rain = 0
KUM1 140727Z 13009KT M06/M09 A3028 RMK A01 T10601093  RH  077%=      5-min Rain = 0
KUM1 140728Z 13009KT M06/M09 A3028 RMK A01 T10601093  RH  078%=      5-min Rain = 0
KUM1 140729Z 12008KT M06/M09 A3028 RMK A01 T10601092  RH  078%=      5-min Rain = 0
KUM1 140730Z 13008KT M06/M09 A3028 RMK A01 T10591091  RH  078%=      5-min Rain = 0
KUM1 140731Z 13008KT M06/M09 A3028 RMK A01 T10591090  RH  079%=      5-min Rain = 0
KUM1 140732Z 14008KT M06/M09 A3028 RMK A01 T10591090  RH  079%=      5-min Rain = 0
KUM1 140733Z 13008KT M06/M09 A3028 RMK A01 T10591090  RH  079%=      5-min Rain = 0
KUM1 140734Z 13009KT M06/M09 A3028 RMK A01 T10591090  RH  079%=      5-min Rain = 0
KUM1 140735Z 14009KT M06/M09 A3028 RMK A01 T10581090  RH  078%=      5-min Rain = 0
KUM1 140736Z 14009KT M06/M09 A3028 RMK A01 T10591090  RH  078%=      5-min Rain = 0
KUM1 140737Z 14009KT M06/M09 A3028 RMK A01 T10581090  RH  078%=      5-min Rain = 0
KUM1 140738Z 14010KT M06/M09 A3028 RMK A01 T10581091  RH  078%=      5-min Rain = 0
KUM1 140739Z 14009KT M06/M09 A3028 RMK A01 T10591092  RH  078%=      5-min Rain = 0
KUM1 140740Z 13009KT M06/M09 A3028 RMK A01 T10591091  RH  078%=      5-min Rain = 0
KUM1 140741Z 14008KT M06/M09 A3028 RMK A01 T10591092  RH  078%=      5-min Rain = 0
KUM1 140742Z 13008KT M06/M09 A3028 RMK A01 T10591091  RH  078%=      5-min Rain = 0
KUM1 140743Z 13009KT M06/M09 A3028 RMK A01 T10591090  RH  079%=      5-min Rain = 0
KUM1 140744Z 13009KT M06/M09 A3028 RMK A01 T10591089  RH  079%=      5-min Rain = 0
KUM1 140745Z 13010KT M06/M09 A3028 RMK A01 T10591091  RH  078%=      5-min Rain = 0
KUM1 140746Z 13009KT M06/M09 A3028 RMK A01 T10591091  RH  078%=      5-min Rain = 0
KUM1 140747Z 14008KT M06/M09 A3028 RMK A01 T10591092  RH  078%=      5-min Rain = 0
KUM1 140748Z 13009KT M06/M09 A3028 RMK A01 T10591091  RH  078%=      5-min Rain = 0
KUM1 140749Z 13009KT M06/M09 A3028 RMK A01 T10591091  RH  079%=      5-min Rain = 0
KUM1 140750Z 12010KT M06/M09 A3028 RMK A01 T10591091  RH  078%=      5-min Rain = 0
KUM1 140751Z 13010KT M06/M09 A3028 RMK A01 T10601092  RH  078%=      5-min Rain = 0
KUM1 140752Z 14007KT M06/M09 A3028 RMK A01 T10601091  RH  079%=      5-min Rain = 0
KUM1 140753Z 14010KT M06/M09 A3028 RMK A01 T10591090  RH  079%=      5-min Rain = 0
KUM1 140754Z 14011KT M06/M09 A3028 RMK A01 T10591091  RH  078%=      5-min Rain = 0
KUM1 140755Z 14011KT M06/M09 A3028 RMK A01 T10601091  RH  078%=      5-min Rain = 0
KUM1 140756Z 13010KT M06/M09 A3028 RMK A01 T10601091  RH  078%=      5-min Rain = 0
KUM1 140757Z 13011KT M06/M09 A3027 RMK A01 T10601091  RH  078%=      5-min Rain = 0
KUM1 140758Z 14009KT M06/M09 A3027 RMK A01 T10601091  RH  078%=      5-min Rain = 0
KUM1 140759Z 13009KT M06/M09 A3028 RMK A01 T10601090  RH  079%=      5-min Rain = 0
KUM1 140800Z 14010KT M06/M09 A3028 RMK A01 T10601090  RH  079%=      5-min Rain = 0
KUM1 140801Z 14009KT M06/M09 A3028 RMK A01 T10591090  RH  079%=      5-min Rain = 0
KUM1 140802Z 14010KT M06/M09 A3028 RMK A01 T10591090  RH  079%=      5-min Rain = 0
KUM1 140803Z 14009KT M06/M09 A3028 RMK A01 T10591090  RH  079%=      5-min Rain = 0
KUM1 140804Z 14009KT M06/M09 A3028 RMK A01 T10591090  RH  079%=      5-min Rain = 0
KUM1 140805Z 15009KT M06/M09 A3028 RMK A01 T10591089  RH  079%=      5-min Rain = 0
KUM1 140806Z 15007KT M06/M09 A3028 RMK A01 T10581088  RH  080%=      5-min Rain = 0
KUM1 140807Z 14009KT M06/M09 A3028 RMK A01 T10581087  RH  080%=      5-min Rain = 0
KUM1 140808Z 14010KT M06/M09 A3028 RMK A01 T10581088  RH  079%=      5-min Rain = 0
KUM1 140809Z 14009KT M06/M09 A3028 RMK A01 T10581089  RH  079%=      5-min Rain = 0
KUM1 140810Z 14009KT M06/M09 A3028 RMK A01 T10581089  RH  079%=      5-min Rain = 0
KUM1 140811Z 14010KT M06/M09 A3028 RMK A01 T10581089  RH  079%=      5-min Rain = 0
KUM1 140812Z 14009KT M06/M09 A3028 RMK A01 T10581090  RH  078%=      5-min Rain = 0
KUM1 140813Z 14008KT M06/M09 A3028 RMK A01 T10591090  RH  078%=      5-min Rain = 0
KUM1 140814Z 14009KT M06/M09 A3028 RMK A01 T10581090  RH  078%=      5-min Rain = 0
KUM1 140815Z 14009KT M06/M09 A3028 RMK A01 T10581089  RH  079%=      5-min Rain = 0
KUM1 140816Z 14008KT M06/M09 A3028 RMK A01 T10591089  RH  079%=      5-min Rain = 0
KUM1 140817Z 14009KT M06/M09 A3028 RMK A01 T10591089  RH  079%=      5-min Rain = 0
KUM1 140818Z 14009KT M06/M09 A3028 RMK A01 T10591089  RH  079%=      5-min Rain = 0
KUM1 140819Z 14009KT M06/M09 A3028 RMK A01 T10591089  RH  079%=      5-min Rain = 0
KUM1 140820Z 14009KT M06/M09 A3028 RMK A01 T10581089  RH  079%=      5-min Rain = 0
KUM1 140821Z 14010KT M06/M09 A3028 RMK A01 T10591089  RH  079%=      5-min Rain = 0
KUM1 140822Z 14009KT M06/M09 A3028 RMK A01 T10581090  RH  079%=      5-min Rain = 0
KUM1 140823Z 15011KT M06/M09 A3028 RMK A01 T10581089  RH  079%=      5-min Rain = 0
KUM1 140824Z 14010KT M06/M09 A3028 RMK A01 T10581089  RH  079%=      5-min Rain = 0
KUM1 140825Z 14010KT M06/M09 A3028 RMK A01 T10581089  RH  079%=      5-min Rain = 0
KUM1 140826Z 15010KT M06/M09 A3028 RMK A01 T10581088  RH  079%=      5-min Rain = 0
KUM1 140827Z 15011KT M06/M09 A3028 RMK A01 T10591089  RH  079%=      5-min Rain = 0
KUM1 140828Z 15011KT M06/M09 A3028 RMK A01 T10581089  RH  079%=      5-min Rain = 0
KUM1 140829Z 14010KT M06/M09 A3028 RMK A01 T10591089  RH  079%=      5-min Rain = 0
KUM1 140830Z 15012KT M06/M09 A3028 RMK A01 T10591089  RH  079%=      5-min Rain = 0
KUM1 140831Z 15011KT M06/M09 A3028 RMK A01 T10591089  RH  079%=      5-min Rain = 0
KUM1 140832Z 15010KT M06/M09 A3028 RMK A01 T10581089  RH  079%=      5-min Rain = 0
KUM1 140833Z 15010KT M06/M09 A3028 RMK A01 T10591089  RH  079%=      5-min Rain = 0
KUM1 140834Z 15010KT M06/M09 A3028 RMK A01 T10591089  RH  079%=      5-min Rain = 0
KUM1 140835Z 15010KT M06/M09 A3028 RMK A01 T10591089  RH  079%=      5-min Rain = 0
KUM1 140836Z 15011KT M06/M09 A3028 RMK A01 T10581089  RH  079%=      5-min Rain = 0
KUM1 140837Z 15011KT M06/M09 A3028 RMK A01 T10581090  RH  079%=      5-min Rain = 0
KUM1 140838Z 15012KT M06/M09 A3028 RMK A01 T10581091  RH  078%=      5-min Rain = 0
KUM1 140839Z 15011KT M06/M09 A3028 RMK A01 T10591092  RH  077%=      5-min Rain = 0
KUM1 140840Z 16012KT M06/M09 A3028 RMK A01 T10591093  RH  077%=      5-min Rain = 0
KUM1 140841Z 16012KT M06/M09 A3028 RMK A01 T10581092  RH  077%=      5-min Rain = 0
KUM1 140842Z 16013KT M06/M09 A3028 RMK A01 T10591092  RH  077%=      5-min Rain = 0
KUM1 140843Z 16011KT M06/M09 A3028 RMK A01 T10591093  RH  077%=      5-min Rain = 0
KUM1 140844Z 16011KT M06/M09 A3028 RMK A01 T10591093  RH  077%=      5-min Rain = 0
KUM1 140845Z 15010KT M06/M09 A3028 RMK A01 T10591092  RH  077%=      5-min Rain = 0
KUM1 140846Z 15011KT M06/M09 A3028 RMK A01 T10591092  RH  078%=      5-min Rain = 0
KUM1 140847Z 15012KT M06/M09 A3028 RMK A01 T10591093  RH  077%=      5-min Rain = 0
KUM1 140848Z 15012KT M06/M09 A3027 RMK A01 T10591093  RH  077%=      5-min Rain = 0
KUM1 140849Z 15013KT M06/M09 A3028 RMK A01 T10591093  RH  077%=      5-min Rain = 0
KUM1 140850Z 15012KT M06/M09 A3028 RMK A01 T10591093  RH  077%=      5-min Rain = 0
KUM1 140851Z 15011KT M06/M09 A3028 RMK A01 T10601094  RH  077%=      5-min Rain = 0
KUM1 140852Z 15011KT M06/M09 A3028 RMK A01 T10601093  RH  077%=      5-min Rain = 0
KUM1 140853Z 15012KT M06/M09 A3028 RMK A01 T10601093  RH  077%=      5-min Rain = 0
KUM1 140854Z 15012KT M06/M09 A3028 RMK A01 T10591093  RH  077%=      5-min Rain = 0
KUM1 140855Z 15011KT M06/M09 A3028 RMK A01 T10601093  RH  077%=      5-min Rain = 0
KUM1 140856Z 16009KT M06/M09 A3028 RMK A01 T10591092  RH  078%=      5-min Rain = 0
KUM1 140857Z 15011KT M06/M09 A3027 RMK A01 T10591092  RH  078%=      5-min Rain = 0
KUM1 140858Z 15011KT M06/M09 A3027 RMK A01 T10591092  RH  078%=      5-min Rain = 0
KUM1 140859Z 15009KT M06/M09 A3027 RMK A01 T10601093  RH  078%=      5-min Rain = 0
KUM1 140900Z 15010KT M06/M09 A3027 RMK A01 T10601092  RH  078%=      5-min Rain = 0
KUM1 140901Z 15012KT M06/M09 A3027 RMK A01 T10601092  RH  078%=      5-min Rain = 0
KUM1 140902Z 15011KT M06/M09 A3027 RMK A01 T10601092  RH  078%=      5-min Rain = 0
KUM1 140903Z 15010KT M06/M09 A3027 RMK A01 T10601093  RH  078%=      5-min Rain = 0
KUM1 140904Z 15011KT M06/M09 A3027 RMK A01 T10611094  RH  078%=      5-min Rain = 0
KUM1 140905Z 15011KT M06/M09 A3027 RMK A01 T10611094  RH  078%=      5-min Rain = 0
KUM1 140906Z 15011KT M06/M09 A3027 RMK A01 T10611093  RH  078%=      5-min Rain = 0
KUM1 140907Z 15011KT M06/M09 A3027 RMK A01 T10611093  RH  078%=      5-min Rain = 0
KUM1 140908Z 14010KT M06/M09 A3027 RMK A01 T10611092  RH  078%=      5-min Rain = 0
KUM1 140909Z 14010KT M06/M09 A3027 RMK A01 T10611092  RH  078%=      5-min Rain = 0
KUM1 140910Z 14011KT M06/M09 A3027 RMK A01 T10611092  RH  078%=      5-min Rain = 0
KUM1 140911Z 14011KT M06/M09 A3027 RMK A01 T10611093  RH  078%=      5-min Rain = 0
KUM1 140912Z 14011KT M06/M09 A3027 RMK A01 T10611093  RH  078%=      5-min Rain = 0
KUM1 140913Z 15010KT M06/M09 A3027 RMK A01 T10611093  RH  078%=      5-min Rain = 0
KUM1 140914Z 15010KT M06/M09 A3027 RMK A01 T10611092  RH  079%=      5-min Rain = 0
KUM1 140915Z 14007KT M06/M09 A3027 RMK A01 T10611092  RH  079%=      5-min Rain = 0
KUM1 140916Z 14009KT M06/M09 A3027 RMK A01 T10611091  RH  079%=      5-min Rain = 0
KUM1 140917Z 15011KT M06/M09 A3027 RMK A01 T10611092  RH  079%=      5-min Rain = 0
KUM1 140918Z 15010KT M06/M09 A3027 RMK A01 T10611092  RH  079%=      5-min Rain = 0
KUM1 140919Z 14011KT M06/M09 A3027 RMK A01 T10611092  RH  079%=      5-min Rain = 0
KUM1 140920Z 15011KT M06/M09 A3027 RMK A01 T10611091  RH  079%=      5-min Rain = 0
KUM1 140921Z 14011KT M06/M09 A3027 RMK A01 T10611092  RH  079%=      5-min Rain = 0
KUM1 140922Z 14011KT M06/M09 A3027 RMK A01 T10611092  RH  079%=      5-min Rain = 0
KUM1 140923Z 15010KT M06/M09 A3027 RMK A01 T10611092  RH  079%=      5-min Rain = 0
KUM1 140924Z 15011KT M06/M09 A3027 RMK A01 T10611092  RH  079%=      5-min Rain = 0
KUM1 140925Z 14010KT M06/M09 A3027 RMK A01 T10611092  RH  079%=      5-min Rain = 0
KUM1 140926Z 15009KT M06/M09 A3027 RMK A01 T10611091  RH  079%=      5-min Rain = 0
KUM1 140927Z 15009KT M06/M09 A3027 RMK A01 T10611091  RH  079%=      5-min Rain = 0
KUM1 140928Z 15010KT M06/M09 A3027 RMK A01 T10611091  RH  079%=      5-min Rain = 0
KUM1 140929Z 15011KT M06/M09 A3027 RMK A01 T10611091  RH  079%=      5-min Rain = 0
KUM1 140930Z 14010KT M06/M09 A3027 RMK A01 T10611091  RH  079%=      5-min Rain = 0
KUM1 140931Z 14011KT M06/M09 A3027 RMK A01 T10611091  RH  079%=      5-min Rain = 0
KUM1 140932Z 14010KT M06/M09 A3027 RMK A01 T10611091  RH  079%=      5-min Rain = 0
KUM1 140933Z 14009KT M06/M09 A3027 RMK A01 T10611091  RH  079%=      5-min Rain = 0
KUM1 140934Z 14010KT M06/M09 A3027 RMK A01 T10611091  RH  079%=      5-min Rain = 0
KUM1 140935Z 15010KT M06/M09 A3026 RMK A01 T10611091  RH  079%=      5-min Rain = 0
KUM1 140936Z 15010KT M06/M09 A3027 RMK A01 T10611092  RH  079%=      5-min Rain = 0
KUM1 140937Z 15011KT M06/M09 A3026 RMK A01 T10611092  RH  079%=      5-min Rain = 0
KUM1 140938Z 15010KT M06/M09 A3026 RMK A01 T10611092  RH  079%=      5-min Rain = 0
KUM1 140939Z 15010KT M06/M09 A3026 RMK A01 T10611091  RH  079%=      5-min Rain = 0
KUM1 140940Z 14009KT M06/M09 A3026 RMK A01 T10611091  RH  079%=      5-min Rain = 0
KUM1 140941Z 14009KT M06/M09 A3026 RMK A01 T10601090  RH  080%=      5-min Rain = 0
KUM1 140942Z 15008KT M06/M09 A3026 RMK A01 T10601089  RH  080%=      5-min Rain = 0
KUM1 140943Z 15009KT M06/M09 A3026 RMK A01 T10601089  RH  080%=      5-min Rain = 0
KUM1 140944Z 15009KT M06/M09 A3026 RMK A01 T10601090  RH  080%=      5-min Rain = 0
KUM1 140945Z 14009KT M06/M09 A3026 RMK A01 T10601090  RH  079%=      5-min Rain = 0
KUM1 140946Z 14009KT M06/M09 A3026 RMK A01 T10601090  RH  079%=      5-min Rain = 0
KUM1 140947Z 15009KT M06/M09 A3026 RMK A01 T10601090  RH  079%=      5-min Rain = 0
KUM1 140948Z 15010KT M06/M09 A3026 RMK A01 T10601090  RH  080%=      5-min Rain = 0
KUM1 140949Z 15010KT M06/M09 A3026 RMK A01 T10601090  RH  080%=      5-min Rain = 0
KUM1 140950Z 15008KT M06/M09 A3026 RMK A01 T10601090  RH  080%=      5-min Rain = 0
KUM1 140951Z 15010KT M06/M09 A3026 RMK A01 T10601089  RH  080%=      5-min Rain = 0
KUM1 140952Z 15010KT M06/M09 A3026 RMK A01 T10601090  RH  079%=      5-min Rain = 0
KUM1 140953Z 15011KT M06/M09 A3026 RMK A01 T10611091  RH  079%=      5-min Rain = 0
KUM1 140954Z 14011KT M06/M09 A3026 RMK A01 T10611092  RH  079%=      5-min Rain = 0
KUM1 140955Z 15009KT M06/M09 A3026 RMK A01 T10611090  RH  079%=      5-min Rain = 0
KUM1 140956Z 14010KT M06/M09 A3026 RMK A01 T10611090  RH  080%=      5-min Rain = 0
KUM1 140957Z 15008KT M06/M09 A3026 RMK A01 T10611090  RH  080%=      5-min Rain = 0
KUM1 140958Z 15009KT M06/M09 A3026 RMK A01 T10611090  RH  080%=      5-min Rain = 0
KUM1 140959Z 15010KT M06/M09 A3026 RMK A01 T10601089  RH  080%=      5-min Rain = 0
KUM1 141000Z 15010KT M06/M09 A3026 RMK A01 T10601090  RH  080%=      5-min Rain = 0
KUM1 141001Z 15011KT M06/M09 A3026 RMK A01 T10601090  RH  080%=      5-min Rain = 0
KUM1 141002Z 15010KT M06/M09 A3026 RMK A01 T10611091  RH  079%=      5-min Rain = 0
KUM1 141003Z 15009KT M06/M09 A3026 RMK A01 T10611091  RH  079%=      5-min Rain = 0
KUM1 141004Z 15010KT M06/M09 A3026 RMK A01 T10611090  RH  080%=      5-min Rain = 0
KUM1 141005Z 15010KT M06/M09 A3026 RMK A01 T10611090  RH  080%=      5-min Rain = 0
KUM1 141006Z 15010KT M06/M09 A3026 RMK A01 T10611090  RH  080%=      5-min Rain = 0
KUM1 141007Z 16010KT M06/M09 A3026 RMK A01 T10611090  RH  080%=      5-min Rain = 0
KUM1 141008Z 16010KT M06/M09 A3026 RMK A01 T10611090  RH  080%=      5-min Rain = 0
KUM1 141009Z 15011KT M06/M09 A3026 RMK A01 T10611090  RH  080%=      5-min Rain = 0
KUM1 141010Z 15010KT M06/M09 A3026 RMK A01 T10611090  RH  080%=      5-min Rain = 0
KUM1 141011Z 16010KT M06/M09 A3026 RMK A01 T10611090  RH  080%=      5-min Rain = 0
KUM1 141012Z 15010KT M06/M09 A3026 RMK A01 T10611091  RH  079%=      5-min Rain = 0
KUM1 141013Z 15010KT M06/M09 A3026 RMK A01 T10611090  RH  080%=      5-min Rain = 0
KUM1 141014Z 15011KT M06/M09 A3026 RMK A01 T10611090  RH  080%=      5-min Rain = 0
KUM1 141015Z 16011KT M06/M09 A3026 RMK A01 T10611090  RH  080%=      5-min Rain = 0
KUM1 141016Z 15010KT M06/M09 A3026 RMK A01 T10611090  RH  080%=      5-min Rain = 0
KUM1 141017Z 16009KT M06/M09 A3026 RMK A01 T10611090  RH  080%=      5-min Rain = 0
KUM1 141018Z 15011KT M06/M09 A3026 RMK A01 T10611090  RH  080%=      5-min Rain = 0
KUM1 141019Z 15009KT M06/M09 A3026 RMK A01 T10611090  RH  080%=      5-min Rain = 0
KUM1 141020Z 15010KT M06/M09 A3026 RMK A01 T10611090  RH  080%=      5-min Rain = 0
KUM1 141021Z 16009KT M06/M09 A3026 RMK A01 T10611090  RH  080%=      5-min Rain = 0
KUM1 141022Z 16011KT M06/M09 A3026 RMK A01 T10611089  RH  080%=      5-min Rain = 0
KUM1 141023Z 15011KT M06/M09 A3026 RMK A01 T10611090  RH  080%=      5-min Rain = 0
KUM1 141024Z 15010KT M06/M09 A3026 RMK A01 T10611090  RH  080%=      5-min Rain = 0
KUM1 141025Z 15009KT M06/M09 A3026 RMK A01 T10611089  RH  080%=      5-min Rain = 0
KUM1 141026Z 16010KT M06/M09 A3026 RMK A01 T10611089  RH  080%=      5-min Rain = 0
KUM1 141027Z 16010KT M06/M09 A3026 RMK A01 T10611089  RH  081%=      5-min Rain = 0
KUM1 141028Z 16011KT M06/M09 A3025 RMK A01 T10611089  RH  080%=      5-min Rain = 0
KUM1 141029Z 16009KT M06/M09 A3026 RMK A01 T10611089  RH  080%=      5-min Rain = 0
KUM1 141030Z 16008KT M06/M09 A3026 RMK A01 T10611089  RH  081%=      5-min Rain = 0
KUM1 141031Z 15010KT M06/M09 A3026 RMK A01 T10611089  RH  081%=      5-min Rain = 0
KUM1 141032Z 15010KT M06/M09 A3026 RMK A01 T10611089  RH  081%=      5-min Rain = 0
KUM1 141033Z 15009KT M06/M09 A3026 RMK A01 T10611089  RH  081%=      5-min Rain = 0
KUM1 141034Z 15009KT M06/M09 A3025 RMK A01 T10611088  RH  081%=      5-min Rain = 0
KUM1 141035Z 16009KT M06/M09 A3025 RMK A01 T10611089  RH  081%=      5-min Rain = 0
KUM1 141036Z 15008KT M06/M09 A3025 RMK A01 T10611089  RH  081%=      5-min Rain = 0
KUM1 141037Z 15008KT M06/M09 A3025 RMK A01 T10611088  RH  081%=      5-min Rain = 0
KUM1 141038Z 15008KT M06/M09 A3025 RMK A01 T10611088  RH  081%=      5-min Rain = 0
KUM1 141039Z 16009KT M06/M09 A3025 RMK A01 T10611088  RH  081%=      5-min Rain = 0
KUM1 141040Z 16009KT M06/M09 A3025 RMK A01 T10611088  RH  081%=      5-min Rain = 0
KUM1 141041Z 15010KT M06/M09 A3025 RMK A01 T10611088  RH  081%=      5-min Rain = 0
KUM1 141042Z 15009KT M06/M09 A3025 RMK A01 T10611088  RH  081%=      5-min Rain = 0
KUM1 141043Z 15008KT M06/M09 A3025 RMK A01 T10611088  RH  081%=      5-min Rain = 0
KUM1 141044Z 15008KT M06/M09 A3025 RMK A01 T10611088  RH  081%=      5-min Rain = 0
KUM1 141045Z 16008KT M06/M09 A3025 RMK A01 T10611088  RH  081%=      5-min Rain = 0
KUM1 141046Z 16009KT M06/M09 A3025 RMK A01 T10611088  RH  081%=      5-min Rain = 0
KUM1 141047Z 16010KT M06/M09 A3025 RMK A01 T10611088  RH  081%=      5-min Rain = 0
KUM1 141048Z 15009KT M06/M09 A3025 RMK A01 T10611088  RH  081%=      5-min Rain = 0
KUM1 141049Z 15009KT M06/M09 A3025 RMK A01 T10611088  RH  081%=      5-min Rain = 0
KUM1 141050Z 15008KT M06/M09 A3025 RMK A01 T10611088  RH  081%=      5-min Rain = 0
KUM1 141051Z 16009KT M06/M09 A3025 RMK A01 T10611087  RH  082%=      5-min Rain = 0
KUM1 141052Z 16008KT M06/M09 A3025 RMK A01 T10601087  RH  082%=      5-min Rain = 0
KUM1 141053Z 16008KT M06/M09 A3025 RMK A01 T10601086  RH  082%=      5-min Rain = 0
KUM1 141054Z 15009KT M06/M09 A3025 RMK A01 T10601086  RH  082%=      5-min Rain = 0
KUM1 141055Z 15008KT M06/M09 A3025 RMK A01 T10601086  RH  082%=      5-min Rain = 0
KUM1 141056Z 15009KT M06/M09 A3025 RMK A01 T10601086  RH  082%=      5-min Rain = 0
KUM1 141057Z 15009KT M06/M09 A3025 RMK A01 T10601086  RH  082%=      5-min Rain = 0
KUM1 141058Z 15010KT M06/M09 A3025 RMK A01 T10601086  RH  082%=      5-min Rain = 0
KUM1 141059Z 15008KT M06/M09 A3025 RMK A01 T10601086  RH  082%=      5-min Rain = 0
KUM1 141100Z 15010KT M06/M09 A3025 RMK A01 T10601086  RH  082%=      5-min Rain = 0
KUM1 141101Z 16009KT M06/M09 A3025 RMK A01 T10601086  RH  082%=      5-min Rain = 0
KUM1 141102Z 16008KT M06/M09 A3025 RMK A01 T10601086  RH  082%=      5-min Rain = 0
KUM1 141103Z 16006KT M06/M09 A3025 RMK A01 T10601086  RH  082%=      5-min Rain = 0
KUM1 141104Z 15009KT M06/M08 A3025 RMK A01 T10591084  RH  083%=      5-min Rain = 0
KUM1 141105Z 16010KT M06/M09 A3025 RMK A01 T10601085  RH  082%=      5-min Rain = 0
KUM1 141106Z 16009KT M06/M09 A3025 RMK A01 T10601086  RH  082%=      5-min Rain = 0
KUM1 141107Z 16009KT M06/M09 A3025 RMK A01 T10601086  RH  082%=      5-min Rain = 0
KUM1 141108Z 16010KT M06/M09 A3025 RMK A01 T10601086  RH  082%=      5-min Rain = 0
KUM1 141109Z 16009KT M06/M09 A3025 RMK A01 T10601086  RH  082%=      5-min Rain = 0
KUM1 141110Z 16008KT M06/M09 A3025 RMK A01 T10601086  RH  082%=      5-min Rain = 0
KUM1 141111Z 15009KT M06/M09 A3025 RMK A01 T10601085  RH  082%=      5-min Rain = 0
KUM1 141112Z 16008KT M06/M08 A3025 RMK A01 T10591084  RH  083%=      5-min Rain = 0
KUM1 141113Z 16009KT M06/M09 A3025 RMK A01 T10591085  RH  082%=      5-min Rain = 0
KUM1 141114Z 16008KT M06/M09 A3025 RMK A01 T10591085  RH  082%=      5-min Rain = 0
KUM1 141115Z 16009KT M06/M09 A3025 RMK A01 T10601085  RH  083%=      5-min Rain = 0
KUM1 141116Z 15009KT M06/M08 A3025 RMK A01 T10601084  RH  083%=      5-min Rain = 0
KUM1 141117Z 16009KT M06/M08 A3025 RMK A01 T10591084  RH  083%=      5-min Rain = 0
KUM1 141118Z 17009KT M06/M08 A3025 RMK A01 T10591083  RH  083%=      5-min Rain = 0
KUM1 141119Z 16008KT M06/M08 A3025 RMK A01 T10591083  RH  083%=      5-min Rain = 0
KUM1 141120Z 16010KT M06/M08 A3025 RMK A01 T10581082  RH  083%=      5-min Rain = 0
KUM1 141121Z 16010KT M06/M08 A3025 RMK A01 T10591083  RH  083%=      5-min Rain = 0
KUM1 141122Z 16009KT M06/M08 A3025 RMK A01 T10581083  RH  083%=      5-min Rain = 0
KUM1 141123Z 16011KT M06/M08 A3025 RMK A01 T10591084  RH  083%=      5-min Rain = 0
KUM1 141124Z 17011KT M06/M08 A3025 RMK A01 T10591084  RH  082%=      5-min Rain = 0
KUM1 141125Z 16009KT M06/M08 A3025 RMK A01 T10591083  RH  083%=      5-min Rain = 0
KUM1 141126Z 16008KT M06/M08 A3025 RMK A01 T10591083  RH  083%=      5-min Rain = 0
KUM1 141127Z 17010KT M06/M08 A3025 RMK A01 T10591082  RH  083%=      5-min Rain = 0
KUM1 141128Z 16011KT M06/M08 A3025 RMK A01 T10591082  RH  084%=      5-min Rain = 0
KUM1 141129Z 16010KT M06/M08 A3025 RMK A01 T10581082  RH  084%=      5-min Rain = 0
KUM1 141130Z 16010KT M06/M08 A3025 RMK A01 T10581081  RH  084%=      5-min Rain = 0
KUM1 141131Z 16010KT M06/M08 A3025 RMK A01 T10581080  RH  084%=      5-min Rain = 0
KUM1 141132Z 16010KT M06/M08 A3025 RMK A01 T10581080  RH  084%=      5-min Rain = 0
KUM1 141133Z 16010KT M06/M08 A3025 RMK A01 T10581080  RH  084%=      5-min Rain = 0
KUM1 141134Z 16011KT M06/M08 A3025 RMK A01 T10581080  RH  085%=      5-min Rain = 0
KUM1 141135Z 17011KT M06/M08 A3025 RMK A01 T10581080  RH  085%=      5-min Rain = 0
KUM1 141136Z 17012KT M06/M08 A3025 RMK A01 T10581079  RH  085%=      5-min Rain = 0
KUM1 141137Z 17011KT M06/M08 A3025 RMK A01 T10571079  RH  085%=      5-min Rain = 0
KUM1 141138Z 16011KT M06/M08 A3025 RMK A01 T10581080  RH  085%=      5-min Rain = 0
KUM1 141139Z 17010KT M06/M08 A3025 RMK A01 T10581079  RH  085%=      5-min Rain = 0
KUM1 141140Z 17011KT M06/M08 A3025 RMK A01 T10581079  RH  085%=      5-min Rain = 0
KUM1 141141Z 17011KT M06/M08 A3025 RMK A01 T10571079  RH  085%=      5-min Rain = 0
KUM1 141142Z 17011KT M06/M08 A3025 RMK A01 T10571078  RH  085%=      5-min Rain = 0
KUM1 141143Z 17011KT M06/M08 A3025 RMK A01 T10571078  RH  086%=      5-min Rain = 0
KUM1 141144Z 16008KT M06/M08 A3025 RMK A01 T10571077  RH  086%=      5-min Rain = 0
KUM1 141145Z 16010KT M06/M08 A3025 RMK A01 T10571077  RH  086%=      5-min Rain = 0
KUM1 141146Z 16010KT M06/M08 A3025 RMK A01 T10571077  RH  086%=      5-min Rain = 0
KUM1 141147Z 15009KT M06/M08 A3025 RMK A01 T10571078  RH  085%=      5-min Rain = 0
KUM1 141148Z 16009KT M06/M08 A3025 RMK A01 T10571078  RH  085%=      5-min Rain = 0
KUM1 141149Z 16010KT M06/M08 A3025 RMK A01 T10571077  RH  085%=      5-min Rain = 0
KUM1 141150Z 16011KT M06/M08 A3025 RMK A01 T10571077  RH  085%=      5-min Rain = 0
KUM1 141151Z 17010KT M06/M08 A3025 RMK A01 T10571078  RH  085%=      5-min Rain = 0
KUM1 141152Z 16011KT M06/M08 A3025 RMK A01 T10571078  RH  085%=      5-min Rain = 0
KUM1 141153Z 16011KT M06/M08 A3025 RMK A01 T10571078  RH  085%=      5-min Rain = 0
KUM1 141154Z 17010KT M06/M08 A3025 RMK A01 T10571078  RH  085%=      5-min Rain = 0
KUM1 141155Z 17010KT M06/M08 A3025 RMK A01 T10571078  RH  085%=      5-min Rain = 0
KUM1 141156Z 16011KT M06/M08 A3025 RMK A01 T10571078  RH  085%=      5-min Rain = 0
KUM1 141157Z 17011KT M06/M08 A3025 RMK A01 T10571078  RH  085%=      5-min Rain = 0
KUM1 141158Z 17012KT M06/M08 A3025 RMK A01 T10571078  RH  085%=      5-min Rain = 0
KUM1 141159Z 17012KT M06/M08 A3025 RMK A01 T10571079  RH  085%=      5-min Rain = 0
KUM1 141200Z 17013KT M06/M08 A3025 RMK A01 T10571079  RH  085%=      5-min Rain = 0
KUM1 141201Z 16011KT M06/M08 A3025 RMK A01 T10571078  RH  085%=      5-min Rain = 0
KUM1 141202Z 17013KT M06/M08 A3025 RMK A01 T10571078  RH  085%=      5-min Rain = 0
KUM1 141203Z 17012KT M06/M08 A3025 RMK A01 T10571077  RH  085%=      5-min Rain = 0
KUM1 141204Z 17011KT M06/M08 A3025 RMK A01 T10571077  RH  085%=      5-min Rain = 0
KUM1 141205Z 17012KT M06/M08 A3025 RMK A01 T10571077  RH  086%=      5-min Rain = 0
KUM1 141206Z 17012KT M06/M08 A3025 RMK A01 T10571077  RH  086%=      5-min Rain = 0
KUM1 141207Z 17012KT M06/M08 A3025 RMK A01 T10571077  RH  086%=      5-min Rain = 0
KUM1 141208Z 17013KT M06/M08 A3025 RMK A01 T10571077  RH  086%=      5-min Rain = 0
KUM1 141209Z 16010KT M06/M08 A3025 RMK A01 T10571077  RH  086%=      5-min Rain = 0
KUM1 141210Z 16010KT M06/M08 A3025 RMK A01 T10561077  RH  086%=      5-min Rain = 0
KUM1 141211Z 16009KT M06/M08 A3025 RMK A01 T10571077  RH  086%=      5-min Rain = 0
KUM1 141212Z 16008KT M06/M08 A3025 RMK A01 T10571078  RH  085%=      5-min Rain = 0
KUM1 141213Z 16009KT M06/M08 A3025 RMK A01 T10571078  RH  085%=      5-min Rain = 0
KUM1 141214Z 16009KT M06/M08 A3025 RMK A01 T10571078  RH  085%=      5-min Rain = 0
KUM1 141215Z 16007KT M06/M08 A3025 RMK A01 T10571078  RH  085%=      5-min Rain = 0
KUM1 141216Z 16008KT M06/M08 A3025 RMK A01 T10571078  RH  085%=      5-min Rain = 0
KUM1 141217Z 16011KT M06/M08 A3025 RMK A01 T10571078  RH  085%=      5-min Rain = 0
KUM1 141218Z 16011KT M06/M08 A3025 RMK A01 T10571079  RH  085%=      5-min Rain = 0
KUM1 141219Z 15010KT M06/M08 A3025 RMK A01 T10581079  RH  085%=      5-min Rain = 0
KUM1 141220Z 16010KT M06/M08 A3025 RMK A01 T10581079  RH  085%=      5-min Rain = 0
KUM1 141221Z 16011KT M06/M08 A3025 RMK A01 T10571079  RH  085%=      5-min Rain = 0
KUM1 141222Z 16011KT M06/M08 A3025 RMK A01 T10581079  RH  085%=      5-min Rain = 0
KUM1 141223Z 16010KT M06/M08 A3025 RMK A01 T10581080  RH  085%=      5-min Rain = 0
KUM1 141224Z 17009KT M06/M08 A3025 RMK A01 T10581079  RH  085%=      5-min Rain = 0
KUM1 141225Z 16011KT M06/M08 A3025 RMK A01 T10581079  RH  085%=      5-min Rain = 0
KUM1 141226Z 17012KT M06/M08 A3025 RMK A01 T10581079  RH  085%=      5-min Rain = 0
KUM1 141227Z 17011KT M06/M08 A3025 RMK A01 T10581079  RH  085%=      5-min Rain = 0
KUM1 141228Z 16010KT M06/M08 A3025 RMK A01 T10581079  RH  085%=      5-min Rain = 0
KUM1 141229Z 16011KT M06/M08 A3025 RMK A01 T10581078  RH  086%=      5-min Rain = 0
KUM1 141230Z 16012KT M06/M08 A3025 RMK A01 T10581078  RH  086%=      5-min Rain = 0
KUM1 141231Z 17012KT M06/M08 A3025 RMK A01 T10581078  RH  086%=      5-min Rain = 0
KUM1 141232Z 16012KT M06/M08 A3025 RMK A01 T10581078  RH  086%=      5-min Rain = 0
KUM1 141233Z 17011KT M06/M08 A3025 RMK A01 T10581078  RH  086%=      5-min Rain = 0
KUM1 141234Z 16011KT M06/M08 A3025 RMK A01 T10581078  RH  086%=      5-min Rain = 0
KUM1 141235Z 17012KT M06/M08 A3025 RMK A01 T10581078  RH  086%=      5-min Rain = 0
KUM1 141236Z 17012KT M06/M08 A3025 RMK A01 T10581078  RH  086%=      5-min Rain = 0
KUM1 141237Z 17010KT M06/M08 A3025 RMK A01 T10581078  RH  086%=      5-min Rain = 0
KUM1 141238Z 17012KT M06/M08 A3025 RMK A01 T10581078  RH  086%=      5-min Rain = 0
KUM1 141239Z 16012KT M06/M08 A3025 RMK A01 T10581078  RH  086%=      5-min Rain = 0
KUM1 141240Z 17010KT M06/M08 A3025 RMK A01 T10581078  RH  086%=      5-min Rain = 0
KUM1 141241Z 17010KT M06/M08 A3025 RMK A01 T10581078  RH  086%=      5-min Rain = 0
KUM1 141242Z 17013KT M06/M08 A3025 RMK A01 T10581077  RH  086%=      5-min Rain = 0
KUM1 141243Z 17013KT M06/M08 A3025 RMK A01 T10581078  RH  086%=      5-min Rain = 0
KUM1 141244Z 17012KT M06/M08 A3025 RMK A01 T10581078  RH  086%=      5-min Rain = 0
KUM1 141245Z 17012KT M06/M08 A3025 RMK A01 T10591078  RH  086%=      5-min Rain = 0
KUM1 141246Z 17011KT M06/M08 A3025 RMK A01 T10591078  RH  086%=      5-min Rain = 0
KUM1 141247Z 17011KT M06/M08 A3025 RMK A01 T10581077  RH  087%=      5-min Rain = 0
KUM1 141248Z 17011KT M06/M08 A3025 RMK A01 T10581077  RH  087%=      5-min Rain = 0
KUM1 141249Z 16010KT M06/M08 A3025 RMK A01 T10591077  RH  087%=      5-min Rain = 0
KUM1 141250Z 17011KT M06/M08 A3025 RMK A01 T10581077  RH  087%=      5-min Rain = 0
KUM1 141251Z 17012KT M06/M08 A3025 RMK A01 T10581076  RH  087%=      5-min Rain = 0
KUM1 141252Z 17011KT M06/M08 A3025 RMK A01 T10581077  RH  087%=      5-min Rain = 0
KUM1 141253Z 17010KT M06/M08 A3025 RMK A01 T10581076  RH  087%=      5-min Rain = 0
KUM1 141254Z 17012KT M06/M08 A3025 RMK A01 T10581075  RH  087%=      5-min Rain = 0
KUM1 141255Z 17011KT M06/M08 A3025 RMK A01 T10581076  RH  087%=      5-min Rain = 0
KUM1 141256Z 17012KT M06/M08 A3025 RMK A01 T10581076  RH  087%=      5-min Rain = 0
KUM1 141257Z 17011KT M06/M08 A3025 RMK A01 T10581076  RH  087%=      5-min Rain = 0
KUM1 141258Z 17010KT M06/M08 A3025 RMK A01 T10581075  RH  088%=      5-min Rain = 0
KUM1 141259Z 17010KT M06/M08 A3025 RMK A01 T10581075  RH  088%=      5-min Rain = 0
KUM1 141300Z 17011KT M06/M07 A3025 RMK A01 T10581074  RH  088%=      5-min Rain = 0
KUM1 141301Z 17011KT M06/M07 A3025 RMK A01 T10581074  RH  088%=      5-min Rain = 0
KUM1 141302Z 18012KT M06/M07 A3025 RMK A01 T10581074  RH  088%=      5-min Rain = 0
KUM1 141303Z 17011KT M06/M08 A3025 RMK A01 T10581075  RH  088%=      5-min Rain = 0
KUM1 141304Z 17009KT M06/M07 A3025 RMK A01 T10581074  RH  088%=      5-min Rain = 0
KUM1 141305Z 17011KT M06/M07 A3025 RMK A01 T10581074  RH  089%=      5-min Rain = 0
KUM1 141306Z 17011KT M06/M07 A3025 RMK A01 T10581073  RH  089%=      5-min Rain = 0
KUM1 141307Z 17010KT M06/M07 A3025 RMK A01 T10571073  RH  089%=      5-min Rain = 0
KUM1 141308Z 17010KT M06/M07 A3025 RMK A01 T10581073  RH  089%=      5-min Rain = 0
KUM1 141309Z 17010KT M06/M07 A3025 RMK A01 T10581073  RH  089%=      5-min Rain = 0
KUM1 141310Z 17010KT M06/M07 A3025 RMK A01 T10581073  RH  089%=      5-min Rain = 0
KUM1 141311Z 17011KT M06/M07 A3025 RMK A01 T10571072  RH  090%=      5-min Rain = 0
KUM1 141312Z 17009KT M06/M07 A3025 RMK A01 T10571072  RH  090%=      5-min Rain = 0
KUM1 141313Z 17010KT M06/M07 A3025 RMK A01 T10571071  RH  090%=      5-min Rain = 0
KUM1 141314Z 17011KT M06/M07 A3025 RMK A01 T10571071  RH  090%=      5-min Rain = 0
KUM1 141315Z 17010KT M06/M07 A3025 RMK A01 T10571071  RH  090%=      5-min Rain = 0
KUM1 141316Z 17010KT M06/M07 A3025 RMK A01 T10571070  RH  090%=      5-min Rain = 0
KUM1 141317Z 16011KT M06/M07 A3025 RMK A01 T10571070  RH  090%=      5-min Rain = 0
KUM1 141318Z 17011KT M06/M07 A3025 RMK A01 T10571070  RH  090%=      5-min Rain = 0
KUM1 141319Z 16009KT M06/M07 A3025 RMK A01 T10571070  RH  090%=      5-min Rain = 0
KUM1 141320Z 17009KT M06/M07 A3025 RMK A01 T10571070  RH  090%=      5-min Rain = 0
KUM1 141321Z 17010KT M06/M07 A3025 RMK A01 T10571070  RH  090%=      5-min Rain = 0
KUM1 141322Z 17010KT M06/M07 A3025 RMK A01 T10571070  RH  090%=      5-min Rain = 0
KUM1 141323Z 17010KT M06/M07 A3025 RMK A01 T10571070  RH  090%=      5-min Rain = 0
KUM1 141324Z 17009KT M06/M07 A3025 RMK A01 T10571070  RH  090%=      5-min Rain = 0
KUM1 141325Z 17008KT M06/M07 A3025 RMK A01 T10561069  RH  091%=      5-min Rain = 0
KUM1 141326Z 17009KT M06/M07 A3025 RMK A01 T10571069  RH  091%=      5-min Rain = 0
KUM1 141327Z 17011KT M06/M07 A3025 RMK A01 T10561068  RH  091%=      5-min Rain = 0
KUM1 141328Z 17011KT M06/M07 A3025 RMK A01 T10561068  RH  092%=      5-min Rain = 0
KUM1 141329Z 17011KT M06/M07 A3025 RMK A01 T10561067  RH  092%=      5-min Rain = 0
KUM1 141330Z 17011KT M06/M07 A3025 RMK A01 T10561067  RH  092%=      5-min Rain = 0
KUM1 141331Z 17010KT M06/M07 A3025 RMK A01 T10561067  RH  092%=      5-min Rain = 0
KUM1 141332Z 17010KT M06/M07 A3025 RMK A01 T10551066  RH  092%=      5-min Rain = 0
KUM1 141333Z 17009KT M06/M07 A3025 RMK A01 T10551065  RH  092%=      5-min Rain = 0
KUM1 141334Z 18010KT M05/M07 A3025 RMK A01 T10541065  RH  092%=      5-min Rain = 0
KUM1 141335Z 18009KT M05/M06 A3025 RMK A01 T10541064  RH  093%=      5-min Rain = 0
KUM1 141336Z 18009KT M05/M06 A3025 RMK A01 T10541063  RH  093%=      5-min Rain = 0
KUM1 141337Z 18009KT M05/M06 A3025 RMK A01 T10531062  RH  093%=      5-min Rain = 0
KUM1 141338Z 18009KT M05/M06 A3026 RMK A01 T10531062  RH  093%=      5-min Rain = 0
KUM1 141339Z 18010KT M05/M06 A3026 RMK A01 T10521061  RH  093%=      5-min Rain = 0
KUM1 141340Z 19009KT M05/M06 A3026 RMK A01 T10521061  RH  093%=      5-min Rain = 0
KUM1 141341Z 18010KT M05/M06 A3026 RMK A01 T10521060  RH  094%=      5-min Rain = 0
KUM1 141342Z 18009KT M05/M06 A3026 RMK A01 T10511059  RH  094%=      5-min Rain = 0
KUM1 141343Z 18011KT M05/M06 A3026 RMK A01 T10501057  RH  094%=      5-min Rain = 0
KUM1 141344Z 19012KT M05/M06 A3026 RMK A01 T10491056  RH  095%=      5-min Rain = 0
KUM1 141345Z 19012KT M05/M06 A3026 RMK A01 T10481055  RH  095%=      5-min Rain = 0
KUM1 141346Z 18011KT M05/M05 A3026 RMK A01 T10471054  RH  095%=      5-min Rain = 0
KUM1 141347Z 19012KT M05/M05 A3026 RMK A01 T10471053  RH  095%=      5-min Rain = 0
KUM1 141348Z 19014KT M05/M05 A3026 RMK A01 T10461053  RH  095%=      5-min Rain = 0
KUM1 141349Z 19013KT M05/M05 A3026 RMK A01 T10451052  RH  095%=      5-min Rain = 0
KUM1 141350Z 18012KT M05/M05 A3026 RMK A01 T10451052  RH  095%=      5-min Rain = 0
KUM1 141351Z 19013KT M05/M05 A3026 RMK A01 T10451052  RH  095%=      5-min Rain = 0
KUM1 141352Z 19015KT M05/M05 A3026 RMK A01 T10451052  RH  095%=      5-min Rain = 0
KUM1 141353Z 18015KT M05/M05 A3026 RMK A01 T10451052  RH  095%=      5-min Rain = 0
KUM1 141354Z 19011KT M05/M05 A3026 RMK A01 T10451052  RH  095%=      5-min Rain = 0
KUM1 141355Z 19011KT M05/M05 A3026 RMK A01 T10451051  RH  095%=      5-min Rain = 0
KUM1 141356Z 19014KT M05/M05 A3026 RMK A01 T10451051  RH  095%=      5-min Rain = 0
KUM1 141357Z 19011KT M05/M05 A3026 RMK A01 T10451051  RH  095%=      5-min Rain = 0
KUM1 141358Z 19012KT M05/M05 A3026 RMK A01 T10451051  RH  095%=      5-min Rain = 0
KUM1 141359Z 19011KT M05/M05 A3026 RMK A01 T10451051  RH  096%=      5-min Rain = 0
KUM1 141400Z 19012KT M05/M05 A3026 RMK A01 T10451051  RH  096%=      5-min Rain = 0
KUM1 141401Z 18011KT M05/M05 A3026 RMK A01 T10451051  RH  096%=      5-min Rain = 0
KUM1 141402Z 19012KT M05/M05 A3026 RMK A01 T10451051  RH  096%=      5-min Rain = 0
KUM1 141403Z 19015KT M05/M05 A3026 RMK A01 T10451051  RH  096%=      5-min Rain = 0
KUM1 141404Z 19014KT M05/M05 A3025 RMK A01 T10451051  RH  095%=      5-min Rain = 0
KUM1 141405Z 18013KT M05/M05 A3025 RMK A01 T10451051  RH  095%=      5-min Rain = 0
KUM1 141406Z 18014KT M05/M05 A3025 RMK A01 T10451052  RH  095%=      5-min Rain = 0
KUM1 141407Z 18014KT M05/M05 A3025 RMK A01 T10451052  RH  095%=      5-min Rain = 0
KUM1 141408Z 19013KT M05/M05 A3026 RMK A01 T10451051  RH  096%=      5-min Rain = 0
KUM1 141409Z 19013KT M05/M05 A3026 RMK A01 T10451051  RH  096%=      5-min Rain = 0
KUM1 141410Z 18011KT M05/M05 A3026 RMK A01 T10451051  RH  096%=      5-min Rain = 0
KUM1 141411Z 19012KT M05/M05 A3026 RMK A01 T10451051  RH  096%=      5-min Rain = 0
KUM1 141412Z 18013KT M05/M05 A3026 RMK A01 T10451051  RH  096%=      5-min Rain = 0
KUM1 141413Z 18013KT M05/M05 A3026 RMK A01 T10451051  RH  096%=      5-min Rain = 0
KUM1 141414Z 18013KT M05/M05 A3026 RMK A01 T10451051  RH  096%=      5-min Rain = 0
KUM1 141415Z 19012KT M05/M05 A3026 RMK A01 T10451050  RH  096%=      5-min Rain = 0
KUM1 141416Z 19013KT M05/M05 A3026 RMK A01 T10451051  RH  096%=      5-min Rain = 0
KUM1 141417Z 19014KT M05/M05 A3026 RMK A01 T10451050  RH  096%=      5-min Rain = 0
KUM1 141418Z 19015KT M05/M05 A3026 RMK A01 T10461051  RH  096%=      5-min Rain = 0
KUM1 141419Z 19012KT M05/M05 A3026 RMK A01 T10461051  RH  096%=      5-min Rain = 0
KUM1 141420Z 19013KT M05/M05 A3026 RMK A01 T10461050  RH  096%=      5-min Rain = 0
KUM1 141421Z 18015KT M05/M05 A3026 RMK A01 T10461051  RH  097%=      5-min Rain = 0
KUM1 141422Z 18014KT M05/M05 A3026 RMK A01 T10461050  RH  097%=      5-min Rain = 0
KUM1 141423Z 19013KT M05/M05 A3026 RMK A01 T10461050  RH  097%=      5-min Rain = 0
KUM1 141424Z 18012KT M05/M05 A3026 RMK A01 T10451050  RH  097%=      5-min Rain = 0
KUM1 141425Z 18014KT M05/M05 A3026 RMK A01 T10451050  RH  097%=      5-min Rain = 0
KUM1 141426Z 18014KT M05/M05 A3026 RMK A01 T10451050  RH  097%=      5-min Rain = 0
KUM1 141427Z 18014KT M05/M05 A3026 RMK A01 T10451050  RH  097%=      5-min Rain = 0
KUM1 141428Z 18015KT M05/M05 A3026 RMK A01 T10451050  RH  097%=      5-min Rain = 0
KUM1 141429Z 18013KT M05/M05 A3026 RMK A01 T10451050  RH  097%=      5-min Rain = 0
KUM1 141430Z 18014KT M05/M05 A3026 RMK A01 T10451050  RH  097%=      5-min Rain = 0
KUM1 141431Z 19014KT M05/M05 A3026 RMK A01 T10451050  RH  097%=      5-min Rain = 0
KUM1 141432Z 19012KT M05/M05 A3026 RMK A01 T10451049  RH  097%=      5-min Rain = 0
KUM1 141433Z 18015KT M05/M05 A3026 RMK A01 T10451049  RH  097%=      5-min Rain = 0
KUM1 141434Z 19014KT M05/M05 A3026 RMK A01 T10451049  RH  097%=      5-min Rain = 0
KUM1 141435Z 19013KT M05/M05 A3026 RMK A01 T10451049  RH  097%=      5-min Rain = 0
KUM1 141436Z 18011KT M05/M05 A3026 RMK A01 T10451049  RH  097%=      5-min Rain = 0
KUM1 141437Z 18013KT M05/M05 A3026 RMK A01 T10451049  RH  097%=      5-min Rain = 0
KUM1 141438Z 18014KT M05/M05 A3026 RMK A01 T10451049  RH  097%=      5-min Rain = 0
KUM1 141439Z 18014KT M05/M05 A3026 RMK A01 T10451049  RH  097%=      5-min Rain = 0
KUM1 141440Z 18014KT M05/M05 A3026 RMK A01 T10451049  RH  097%=      5-min Rain = 0
KUM1 141441Z 19011KT M05/M05 A3026 RMK A01 T10451049  RH  097%=      5-min Rain = 0
KUM1 141442Z 18011KT M04/M05 A3026 RMK A01 T10441048  RH  097%=      5-min Rain = 0
KUM1 141443Z 18013KT M04/M05 A3026 RMK A01 T10441048  RH  097%=      5-min Rain = 0
KUM1 141444Z 19015KT M04/M05 A3026 RMK A01 T10441048  RH  097%=      5-min Rain = 0
KUM1 141445Z 19012KT M04/M05 A3026 RMK A01 T10441048  RH  097%=      5-min Rain = 0
KUM1 141446Z 19011KT M04/M05 A3026 RMK A01 T10441048  RH  097%=      5-min Rain = 0
KUM1 141447Z 19011KT M04/M05 A3026 RMK A01 T10431047  RH  097%=      5-min Rain = 0
KUM1 141448Z 19010KT M04/M05 A3026 RMK A01 T10431046  RH  097%=      5-min Rain = 0
KUM1 141449Z 19013KT M04/M05 A3026 RMK A01 T10421046  RH  097%=      5-min Rain = 0
KUM1 141450Z 19013KT M04/M05 A3026 RMK A01 T10421046  RH  097%=      5-min Rain = 0
KUM1 141451Z 19013KT M04/M05 A3026 RMK A01 T10431046  RH  097%=      5-min Rain = 0
KUM1 141452Z 19011KT M04/M05 A3026 RMK A01 T10421046  RH  097%=      5-min Rain = 0
KUM1 141453Z 18013KT M04/M05 A3026 RMK A01 T10421046  RH  097%=      5-min Rain = 0
KUM1 141454Z 19012KT M04/M05 A3026 RMK A01 T10421045  RH  097%=      5-min Rain = 0
KUM1 141455Z 19013KT M04/M05 A3026 RMK A01 T10421045  RH  097%=      5-min Rain = 0
KUM1 141456Z 19014KT M04/M05 A3026 RMK A01 T10421045  RH  097%=      5-min Rain = 0
KUM1 141457Z 19014KT M04/M05 A3026 RMK A01 T10421045  RH  097%=      5-min Rain = 0
KUM1 141458Z 19016KT M04/M05 A3026 RMK A01 T10421045  RH  097%=      5-min Rain = 0
KUM1 141459Z 19013KT M04/M05 A3026 RMK A01 T10421045  RH  097%=      5-min Rain = 0
KUM1 141500Z 19013KT M04/M05 A3026 RMK A01 T10421045  RH  097%=      5-min Rain = 0
KUM1 141501Z 19011KT M04/M05 A3026 RMK A01 T10411045  RH  097%=      5-min Rain = 0
KUM1 141502Z 19012KT M04/M04 A3026 RMK A01 T10411044  RH  098%=      5-min Rain = 0
KUM1 141503Z 19014KT M04/M04 A3026 RMK A01 T10411044  RH  098%=      5-min Rain = 0
KUM1 141504Z 19014KT M04/M04 A3026 RMK A01 T10411044  RH  098%=      5-min Rain = 0
KUM1 141505Z 19014KT M04/M04 A3026 RMK A01 T10411044  RH  098%=      5-min Rain = 0
KUM1 141506Z 19013KT M04/M04 A3026 RMK A01 T10401043  RH  098%=      5-min Rain = 0
KUM1 141507Z 19011KT M04/M04 A3026 RMK A01 T10401043  RH  098%=      5-min Rain = 0
KUM1 141508Z 19012KT M04/M04 A3026 RMK A01 T10391043  RH  098%=      5-min Rain = 0
KUM1 141509Z 19011KT M04/M04 A3026 RMK A01 T10391042  RH  098%=      5-min Rain = 0
KUM1 141510Z 20012KT M04/M04 A3025 RMK A01 T10381041  RH  098%=      5-min Rain = 0
KUM1 141511Z 20012KT M04/M04 A3026 RMK A01 T10391042  RH  098%=      5-min Rain = 0
KUM1 141512Z 19011KT M04/M04 A3026 RMK A01 T10381041  RH  098%=      5-min Rain = 0
KUM1 141513Z 19014KT M04/M04 A3025 RMK A01 T10371041  RH  098%=      5-min Rain = 0
KUM1 141514Z 19015KT M04/M04 A3025 RMK A01 T10381041  RH  098%=      5-min Rain = 0
KUM1 141515Z 19014KT M04/M04 A3025 RMK A01 T10381041  RH  098%=      5-min Rain = 0
KUM1 141516Z 19015KT M04/M04 A3025 RMK A01 T10381041  RH  098%=      5-min Rain = 0
KUM1 141517Z 19013KT M04/M04 A3025 RMK A01 T10381041  RH  098%=      5-min Rain = 0
KUM1 141518Z 19015KT M04/M04 A3025 RMK A01 T10371041  RH  098%=      5-min Rain = 0
KUM1 141519Z 19013KT M04/M04 A3025 RMK A01 T10371040  RH  098%=      5-min Rain = 0
KUM1 141520Z 19015KT M04/M04 A3025 RMK A01 T10361039  RH  098%=      5-min Rain = 0
KUM1 141521Z 19014KT M04/M04 A3025 RMK A01 T10361039  RH  098%=      5-min Rain = 0
KUM1 141522Z 19015KT M04/M04 A3025 RMK A01 T10361040  RH  098%=      5-min Rain = 0
KUM1 141523Z 19014KT M04/M04 A3025 RMK A01 T10361039  RH  098%=      5-min Rain = 0
KUM1 141524Z 19013KT M04/M04 A3025 RMK A01 T10361040  RH  098%=      5-min Rain = 0
KUM1 141525Z 19016KT M04/M04 A3025 RMK A01 T10361039  RH  098%=      5-min Rain = 0
KUM1 141526Z 19015KT M04/M04 A3025 RMK A01 T10361040  RH  098%=      5-min Rain = 0
KUM1 141527Z 19014KT M04/M04 A3025 RMK A01 T10361040  RH  098%=      5-min Rain = 0
KUM1 141528Z 19013KT M04/M04 A3025 RMK A01 T10351039  RH  098%=      5-min Rain = 0
KUM1 141529Z 19015KT M04/M04 A3025 RMK A01 T10351038  RH  098%=      5-min Rain = 0
KUM1 141530Z 19013KT M04/M04 A3025 RMK A01 T10351038  RH  098%=      5-min Rain = 0
KUM1 141531Z 19014KT M04/M04 A3025 RMK A01 T10351038  RH  098%=      5-min Rain = 0
KUM1 141532Z 19014KT M04/M04 A3026 RMK A01 T10351038  RH  098%=      5-min Rain = 0
KUM1 141533Z 20014KT M03/M04 A3026 RMK A01 T10341038  RH  098%=      5-min Rain = 0
KUM1 141534Z 19012KT M03/M04 A3026 RMK A01 T10341037  RH  098%=      5-min Rain = 0
KUM1 141535Z 20013KT M03/M04 A3026 RMK A01 T10331037  RH  098%=      5-min Rain = 0
KUM1 141536Z 20012KT M03/M04 A3026 RMK A01 T10331036  RH  098%=      5-min Rain = 0
KUM1 141537Z 20014KT M03/M04 A3026 RMK A01 T10331036  RH  098%=      5-min Rain = 0
KUM1 141538Z 19014KT M03/M04 A3026 RMK A01 T10321035  RH  098%=      5-min Rain = 0
KUM1 141539Z 20015KT M03/M04 A3026 RMK A01 T10331036  RH  098%=      5-min Rain = 0
KUM1 141540Z 20013KT M03/M04 A3026 RMK A01 T10321035  RH  098%=      5-min Rain = 0
KUM1 141541Z 20015KT M03/M04 A3026 RMK A01 T10321035  RH  098%=      5-min Rain = 0
KUM1 141542Z 20015KT M03/M03 A3026 RMK A01 T10311034  RH  098%=      5-min Rain = 0
KUM1 141543Z 20014KT M03/M03 A3026 RMK A01 T10311034  RH  098%=      5-min Rain = 0
KUM1 141544Z 19014KT M03/M03 A3026 RMK A01 T10311034  RH  098%=      5-min Rain = 0
KUM1 141545Z 19015KT M03/M03 A3026 RMK A01 T10311034  RH  098%=      5-min Rain = 0
KUM1 141546Z 20013KT M03/M03 A3026 RMK A01 T10301033  RH  098%=      5-min Rain = 0
KUM1 141547Z 20013KT M03/M03 A3026 RMK A01 T10301033  RH  098%=      5-min Rain = 0
KUM1 141548Z 20010KT M03/M03 A3026 RMK A01 T10301033  RH  098%=      5-min Rain = 0
KUM1 141549Z 20013KT M03/M03 A3026 RMK A01 T10291032  RH  098%=      5-min Rain = 0
KUM1 141550Z 20016KT M03/M03 A3026 RMK A01 T10281031  RH  098%=      5-min Rain = 0
KUM1 141551Z 20016KT M03/M03 A3026 RMK A01 T10291032  RH  098%=      5-min Rain = 0
KUM1 141552Z 20014KT M03/M03 A3026 RMK A01 T10291033  RH  098%=      5-min Rain = 0
KUM1 141553Z 20016KT M03/M03 A3026 RMK A01 T10291032  RH  098%=      5-min Rain = 0
KUM1 141554Z 20014KT M03/M03 A3026 RMK A01 T10291032  RH  098%=      5-min Rain = 0
KUM1 141555Z 20016KT M03/M03 A3026 RMK A01 T10291032  RH  098%=      5-min Rain = 0
KUM1 141556Z 20015KT M03/M03 A3026 RMK A01 T10291032  RH  098%=      5-min Rain = 0
KUM1 141557Z 20013KT M03/M03 A3025 RMK A01 T10281032  RH  098%=      5-min Rain = 0
KUM1 141558Z 20011KT M03/M03 A3025 RMK A01 T10281031  RH  098%=      5-min Rain = 0
KUM1 141559Z 20014KT M03/M03 A3025 RMK A01 T10271030  RH  098%=      5-min Rain = 0
KUM1 141600Z 19014KT M03/M03 A3025 RMK A01 T10271030  RH  098%=      5-min Rain = 0
KUM1 141601Z 19015KT M03/M03 A3025 RMK A01 T10271030  RH  098%=      5-min Rain = 0
KUM1 141602Z 20015KT M03/M03 A3025 RMK A01 T10261030  RH  098%=      5-min Rain = 0
KUM1 141603Z 20012KT M03/M03 A3025 RMK A01 T10261030  RH  098%=      5-min Rain = 0
KUM1 141604Z 20011KT M03/M03 A3025 RMK A01 T10261029  RH  098%=      5-min Rain = 0
KUM1 141605Z 20012KT M03/M03 A3025 RMK A01 T10251028  RH  098%=      5-min Rain = 0
KUM1 141606Z 20013KT M03/M03 A3025 RMK A01 T10251028  RH  098%=      5-min Rain = 0
KUM1 141607Z 20016KT M03/M03 A3025 RMK A01 T10251028  RH  098%=      5-min Rain = 0
KUM1 141608Z 20016KT M03/M03 A3025 RMK A01 T10251028  RH  097%=      5-min Rain = 0
KUM1 141609Z 20014KT M03/M03 A3025 RMK A01 T10251029  RH  097%=      5-min Rain = 0
KUM1 141610Z 20014KT M03/M03 A3025 RMK A01 T10251029  RH  097%=      5-min Rain = 0
KUM1 141611Z 20014KT M03/M03 A3025 RMK A01 T10251029  RH  097%=      5-min Rain = 0
KUM1 141612Z 20015KT M03/M03 A3025 RMK A01 T10251028  RH  097%=      5-min Rain = 0
KUM1 141613Z 20014G19KT M02/M03 A3025 RMK A01 T10241028  RH  097%=      5-min Rain = 0
KUM1 141614Z 20015KT M02/M03 A3025 RMK A01 T10241028  RH  097%=      5-min Rain = 0
KUM1 141615Z 20016KT M02/M03 A3025 RMK A01 T10241028  RH  097%=      5-min Rain = 0
KUM1 141616Z 21017KT M02/M03 A3025 RMK A01 T10241028  RH  097%=      5-min Rain = 0
KUM1 141617Z 21016KT M02/M03 A3025 RMK A01 T10241028  RH  097%=      5-min Rain = 0
KUM1 141618Z 19014KT M02/M03 A3025 RMK A01 T10241028  RH  097%=      5-min Rain = 0
KUM1 141619Z 20013G18KT M02/M03 A3025 RMK A01 T10241028  RH  097%=      5-min Rain = 0
KUM1 141620Z 21016KT M02/M03 A3025 RMK A01 T10231027  RH  097%=      5-min Rain = 0
KUM1 141621Z 21015KT M02/M03 A3025 RMK A01 T10241028  RH  097%=      5-min Rain = 0
KUM1 141622Z 20015KT M02/M03 A3025 RMK A01 T10241028  RH  097%=      5-min Rain = 0
KUM1 141623Z 20015KT M02/M03 A3025 RMK A01 T10231027  RH  097%=      5-min Rain = 0
KUM1 141624Z 20015KT M02/M03 A3025 RMK A01 T10231027  RH  097%=      5-min Rain = 0
KUM1 141625Z 20016KT M02/M03 A3025 RMK A01 T10231027  RH  097%=      5-min Rain = 0
KUM1 141626Z 21017KT M02/M03 A3025 RMK A01 T10231027  RH  097%=      5-min Rain = 0
KUM1 141627Z 20015KT M02/M03 A3025 RMK A01 T10231027  RH  097%=      5-min Rain = 0
KUM1 141628Z 20015KT M02/M03 A3025 RMK A01 T10231027  RH  097%=      5-min Rain = 0
KUM1 141629Z 20014KT M02/M03 A3025 RMK A01 T10221027  RH  097%=      5-min Rain = 0
KUM1 141630Z 20016KT M02/M03 A3025 RMK A01 T10221027  RH  097%=      5-min Rain = 0
KUM1 141631Z 20015KT M02/M03 A3025 RMK A01 T10221027  RH  097%=      5-min Rain = 0
KUM1 141632Z 20016KT M02/M03 A3025 RMK A01 T10211026  RH  097%=      5-min Rain = 0
KUM1 141633Z 20016KT M02/M03 A3025 RMK A01 T10211026  RH  097%=      5-min Rain = 0
KUM1 141634Z 20017KT M02/M03 A3025 RMK A01 T10221027  RH  097%=      5-min Rain = 0
KUM1 141635Z 20014KT M02/M03 A3025 RMK A01 T10221027  RH  097%=      5-min Rain = 0
KUM1 141636Z 20015KT M02/M03 A3025 RMK A01 T10221027  RH  097%=      5-min Rain = 0
KUM1 141637Z 20017KT M02/M03 A3025 RMK A01 T10211025  RH  097%=      5-min Rain = 0
KUM1 141638Z 20015KT M02/M03 A3025 RMK A01 T10211026  RH  097%=      5-min Rain = 0
KUM1 141639Z 20014KT M02/M03 A3025 RMK A01 T10211026  RH  097%=      5-min Rain = 0
KUM1 141640Z 20017KT M02/M03 A3025 RMK A01 T10211025  RH  097%=      5-min Rain = 0
KUM1 141641Z 20015KT M02/M03 A3025 RMK A01 T10201025  RH  097%=      5-min Rain = 0
KUM1 141642Z 20015KT M02/M03 A3025 RMK A01 T10201025  RH  097%=      5-min Rain = 0
KUM1 141643Z 20014KT M02/M03 A3025 RMK A01 T10201025  RH  096%=      5-min Rain = 0
KUM1 141644Z 21014KT M02/M03 A3025 RMK A01 T10201025  RH  096%=      5-min Rain = 0
KUM1 141645Z 21013KT M02/M02 A3024 RMK A01 T10191024  RH  096%=      5-min Rain = 0
KUM1 141646Z 20015KT M02/M02 A3024 RMK A01 T10191024  RH  096%=      5-min Rain = 0
KUM1 141647Z 20015KT M02/M02 A3024 RMK A01 T10181024  RH  096%=      5-min Rain = 0
KUM1 141648Z 20017KT M02/M02 A3024 RMK A01 T10181024  RH  096%=      5-min Rain = 0
KUM1 141649Z 20018G23KT M02/M02 A3024 RMK A01 T10181024  RH  096%=      5-min Rain = 0
KUM1 141650Z 20017KT M02/M02 A3024 RMK A01 T10181024  RH  096%=      5-min Rain = 0
KUM1 141651Z 19018KT M02/M02 A3024 RMK A01 T10181024  RH  096%=      5-min Rain = 0
KUM1 141652Z 20016KT M02/M02 A3024 RMK A01 T10171024  RH  095%=      5-min Rain = 0
KUM1 141653Z 20016KT M02/M02 A3024 RMK A01 T10171023  RH  095%=      5-min Rain = 0
KUM1 141654Z 20018KT M02/M02 A3024 RMK A01 T10161023  RH  095%=      5-min Rain = 0
KUM1 141655Z 21016KT M02/M02 A3024 RMK A01 T10161024  RH  095%=      5-min Rain = 0
KUM1 141656Z 20016KT M02/M02 A3024 RMK A01 T10161024  RH  095%=      5-min Rain = 0
KUM1 141657Z 20014KT M02/M02 A3024 RMK A01 T10151023  RH  095%=      5-min Rain = 0
KUM1 141658Z 20018KT M02/M02 A3024 RMK A01 T10151022  RH  095%=      5-min Rain = 0
KUM1 141659Z 20018KT M01/M02 A3024 RMK A01 T10141022  RH  095%=      5-min Rain = 0
KUM1 141700Z 20018KT M01/M02 A3024 RMK A01 T10141022  RH  094%=      5-min Rain = 0
KUM1 141701Z 20017KT M01/M02 A3024 RMK A01 T10141023  RH  094%=      5-min Rain = 0
KUM1 141702Z 21016KT M01/M02 A3024 RMK A01 T10141022  RH  094%=      5-min Rain = 0
KUM1 141703Z 21018KT M01/M02 A3024 RMK A01 T10131021  RH  094%=      5-min Rain = 0
KUM1 141704Z 21017KT M01/M02 A3023 RMK A01 T10131021  RH  094%=      5-min Rain = 0
KUM1 141705Z 22017KT M01/M02 A3023 RMK A01 T10131022  RH  094%=      5-min Rain = 0
KUM1 141706Z 21016KT M01/M02 A3023 RMK A01 T10121021  RH  094%=      5-min Rain = 0
KUM1 141707Z 21015KT M01/M02 A3023 RMK A01 T10121021  RH  093%=      5-min Rain = 0
KUM1 141708Z 20015KT M01/M02 A3023 RMK A01 T10111020  RH  093%=      5-min Rain = 0
KUM1 141709Z 20015KT M01/M02 A3023 RMK A01 T10101019  RH  093%=      5-min Rain = 0
KUM1 141710Z 20016KT M01/M02 A3023 RMK A01 T10101020  RH  093%=      5-min Rain = 0
KUM1 141711Z 20015KT M01/M02 A3023 RMK A01 T10091020  RH  093%=      5-min Rain = 0
KUM1 141712Z 20014KT M01/M02 A3023 RMK A01 T10091020  RH  093%=      5-min Rain = 0
KUM1 141713Z 20014KT M01/M02 A3023 RMK A01 T10101020  RH  093%=      5-min Rain = 0
KUM1 141714Z 20017KT M01/M02 A3023 RMK A01 T10101020  RH  093%=      5-min Rain = 0
KUM1 141715Z 20017KT M01/M02 A3023 RMK A01 T10101020  RH  093%=      5-min Rain = 0
KUM1 141716Z 20013KT M01/M02 A3023 RMK A01 T10091020  RH  093%=      5-min Rain = 0
KUM1 141717Z 20015KT M01/M02 A3023 RMK A01 T10091019  RH  093%=      5-min Rain = 0
KUM1 141718Z 20015KT M01/M02 A3023 RMK A01 T10081019  RH  092%=      5-min Rain = 0
KUM1 141719Z 20015KT M01/M02 A3023 RMK A01 T10081019  RH  092%=      5-min Rain = 0
KUM1 141720Z 20014KT M01/M02 A3023 RMK A01 T10081019  RH  092%=      5-min Rain = 0
KUM1 141721Z 21014KT M01/M02 A3023 RMK A01 T10071018  RH  092%=      5-min Rain = 0
KUM1 141722Z 19015KT M01/M02 A3023 RMK A01 T10071019  RH  092%=      5-min Rain = 0
KUM1 141723Z 18013KT M01/M02 A3023 RMK A01 T10091022  RH  091%=      5-min Rain = 0
KUM1 141724Z 19013KT M01/M02 A3023 RMK A01 T10101022  RH  092%=      5-min Rain = 0
KUM1 141725Z 20012KT M01/M02 A3023 RMK A01 T10101021  RH  092%=      5-min Rain = 0
KUM1 141726Z 19010KT M01/M02 A3023 RMK A01 T10101021  RH  093%=      5-min Rain = 0
KUM1 141727Z 19011KT M01/M02 A3023 RMK A01 T10101020  RH  093%=      5-min Rain = 0
KUM1 141728Z 20015KT M01/M02 A3023 RMK A01 T10091019  RH  093%=      5-min Rain = 0
KUM1 141729Z 20014KT M01/M02 A3023 RMK A01 T10081019  RH  093%=      5-min Rain = 0
KUM1 141730Z 19012KT M01/M02 A3023 RMK A01 T10071017  RH  093%=      5-min Rain = 0
KUM1 141731Z 19012KT M01/M02 A3023 RMK A01 T10061017  RH  092%=      5-min Rain = 0
KUM1 141732Z 18012G17KT M01/M02 A3023 RMK A01 T10071019  RH  092%=      5-min Rain = 0
KUM1 141733Z 19011KT M01/M02 A3023 RMK A01 T10081020  RH  092%=      5-min Rain = 0
KUM1 141734Z 20012KT M01/M02 A3023 RMK A01 T10081020  RH  092%=      5-min Rain = 0
KUM1 141735Z 20011KT M01/M02 A3023 RMK A01 T10081020  RH  092%=      5-min Rain = 0
KUM1 141736Z 20014KT M01/M02 A3023 RMK A01 T10081019  RH  092%=      5-min Rain = 0
KUM1 141737Z 21017KT M01/M02 A3023 RMK A01 T10071018  RH  092%=      5-min Rain = 0
KUM1 141738Z 21015KT M01/M02 A3023 RMK A01 T10061018  RH  092%=      5-min Rain = 0
KUM1 141739Z 20013KT M01/M02 A3023 RMK A01 T10051017  RH  092%=      5-min Rain = 0
KUM1 141740Z 20017KT M01/M02 A3023 RMK A01 T10051017  RH  092%=      5-min Rain = 0
KUM1 141741Z 21017KT M01/M02 A3023 RMK A01 T10051018  RH  091%=      5-min Rain = 0
KUM1 141742Z 21017KT M01/M02 A3022 RMK A01 T10051018  RH  091%=      5-min Rain = 0
KUM1 141743Z 21019KT M01/M02 A3022 RMK A01 T10051018  RH  091%=      5-min Rain = 0
KUM1 141744Z 21018KT M01/M02 A3022 RMK A01 T10051018  RH  090%=      5-min Rain = 0
KUM1 141745Z 21018KT M00/M02 A3023 RMK A01 T10041018  RH  091%=      5-min Rain = 0
KUM1 141746Z 21017KT M00/M02 A3022 RMK A01 T10041018  RH  090%=      5-min Rain = 0
KUM1 141747Z 21015KT M00/M02 A3022 RMK A01 T10041018  RH  090%=      5-min Rain = 0
KUM1 141748Z 21016KT M00/M02 A3022 RMK A01 T10031016  RH  091%=      5-min Rain = 0
KUM1 141749Z 20016KT M00/M02 A3022 RMK A01 T10021016  RH  090%=      5-min Rain = 0
KUM1 141750Z 21016KT M00/M02 A3022 RMK A01 T10031017  RH  090%=      5-min Rain = 0
KUM1 141751Z 21017KT M00/M02 A3022 RMK A01 T10021017  RH  090%=      5-min Rain = 0
KUM1 141752Z 20015KT M00/M02 A3022 RMK A01 T10021018  RH  090%=      5-min Rain = 0
KUM1 141753Z 21015KT M00/M02 A3022 RMK A01 T10021017  RH  090%=      5-min Rain = 0
KUM1 141754Z 20016KT M00/M02 A3022 RMK A01 T10021016  RH  090%=      5-min Rain = 0
KUM1 141755Z 21015KT M00/M02 A3022 RMK A01 T10011016  RH  090%=      5-min Rain = 0
KUM1 141756Z 21017KT M00/M02 A3022 RMK A01 T10011016  RH  090%=      5-min Rain = 0
KUM1 141757Z 21016KT M00/M02 A3022 RMK A01 T10011017  RH  089%=      5-min Rain = 0
KUM1 141758Z 21014KT M00/M02 A3022 RMK A01 T10021018  RH  089%=      5-min Rain = 0
KUM1 141759Z 20016G21KT M00/M02 A3022 RMK A01 T10021017  RH  090%=      5-min Rain = 0
KUM1 141800Z 20018KT M00/M02 A3022 RMK A01 T10011016  RH  090%=      5-min Rain = 0
KUM1 141801Z 21018KT M00/M02 A3022 RMK A01 T10021017  RH  089%=      5-min Rain = 0
KUM1 141802Z 21017KT M00/M02 A3022 RMK A01 T10021018  RH  089%=      5-min Rain = 0
KUM1 141803Z 21015KT M00/M02 A3022 RMK A01 T10031018  RH  090%=      5-min Rain = 0
KUM1 141804Z 20019KT M00/M02 A3022 RMK A01 T10021017  RH  090%=      5-min Rain = 0
KUM1 141805Z 21015KT M00/M02 A3022 RMK A01 T10011016  RH  090%=      5-min Rain = 0
KUM1 141806Z 21019KT 00/02 A3021 RMK A01 T00-00-15  RH  089%=      5-min Rain = 0
KUM1 141807Z 21017G22KT 00/02 A3021 RMK A01 T00-00-16  RH  089%=      5-min Rain = 0
KUM1 141808Z 21017KT 00/02 A3021 RMK A01 T00-00-16  RH  089%=      5-min Rain = 0
KUM1 141809Z 21020KT 00/02 A3021 RMK A01 T00-00-16  RH  089%=      5-min Rain = 0
KUM1 141810Z 21018KT 00/02 A3021 RMK A01 T00-00-16  RH  089%=      5-min Rain = 0
KUM1 141811Z 21016KT 00/02 A3021 RMK A01 T00-00-16  RH  089%=      5-min Rain = 0
KUM1 141812Z 21019KT 00/M01 A3021 RMK A01 T00021014  RH  089%=      5-min Rain = 0
KUM1 141813Z 21018KT 00/M02 A3021 RMK A01 T00011016  RH  088%=      5-min Rain = 0
KUM1 141814Z 20015KT 00/M02 A3021 RMK A01 T00011015  RH  089%=      5-min Rain = 0
KUM1 141815Z 21018KT 00/M01 A3021 RMK A01 T00031014  RH  089%=      5-min Rain = 0
KUM1 141816Z 21018KT 00/M01 A3021 RMK A01 T00031014  RH  088%=      5-min Rain = 0
KUM1 141817Z 21019KT 00/M02 A3021 RMK A01 T00041015  RH  088%=      5-min Rain = 0
KUM1 141818Z 20017KT 00/M02 A3021 RMK A01 T00031015  RH  088%=      5-min Rain = 0
KUM1 141819Z 21019KT 00/M01 A3021 RMK A01 T00041014  RH  088%=      5-min Rain = 0
KUM1 141820Z 21019KT 00/M01 A302 RMK A01 T00041014  RH  087%=      5-min Rain = 0
KUM1 141821Z 21016KT 00/M02 A3021 RMK A01 T00041015  RH  088%=      5-min Rain = 0
KUM1 141822Z 21018KT 00/M01 A302 RMK A01 T00041014  RH  088%=      5-min Rain = 0
KUM1 141823Z 21017KT 00/M01 A302 RMK A01 T00041014  RH  087%=      5-min Rain = 0
KUM1 141824Z 21016KT 00/M02 A302 RMK A01 T00041015  RH  087%=      5-min Rain = 0
KUM1 141825Z 21015KT 00/M01 A302 RMK A01 T00041014  RH  087%=      5-min Rain = 0
KUM1 141826Z 22017KT 00/M02 A302 RMK A01 T00041015  RH  087%=      5-min Rain = 0
KUM1 141827Z 21013KT 00/M01 A302 RMK A01 T00041014  RH  088%=      5-min Rain = 0
KUM1 141828Z 21017KT 01/M01 A302 RMK A01 T00051013  RH  088%=      5-min Rain = 0
KUM1 141829Z 20014KT 00/M02 A302 RMK A01 T00041015  RH  087%=      5-min Rain = 0
KUM1 141830Z 20016KT 00/M01 A302 RMK A01 T00031014  RH  088%=      5-min Rain = 0
KUM1 141831Z 21013KT 00/M01 A302 RMK A01 T00031014  RH  088%=      5-min Rain = 0
KUM1 141832Z 20014KT 00/M01 A302 RMK A01 T00041013  RH  088%=      5-min Rain = 0
KUM1 141833Z 20016KT 01/M01 A302 RMK A01 T00051013  RH  088%=      5-min Rain = 0
KUM1 141834Z 20017KT 00/M01 A3019 RMK A01 T00041013  RH  088%=      5-min Rain = 0
KUM1 141835Z 19017KT 00/M01 A3019 RMK A01 T00041014  RH  088%=      5-min Rain = 0
KUM1 141836Z 19018KT 00/M01 A3019 RMK A01 T00041014  RH  088%=      5-min Rain = 0
KUM1 141837Z 20017KT 00/M01 A3019 RMK A01 T00041013  RH  088%=      5-min Rain = 0
KUM1 141838Z 20017KT 00/M01 A3019 RMK A01 T00041013  RH  088%=      5-min Rain = 0
KUM1 141839Z 20018KT 01/M01 A3019 RMK A01 T00061011  RH  088%=      5-min Rain = 0
KUM1 141840Z 20017KT 01/M01 A3019 RMK A01 T00071011  RH  088%=      5-min Rain = 0
KUM1 141841Z 20018KT 01/M01 A3019 RMK A01 T00061012  RH  087%=      5-min Rain = 0
KUM1 141842Z 20017KT 01/M01 A3019 RMK A01 T00061013  RH  087%=      5-min Rain = 0
KUM1 141843Z 21017KT 01/M01 A3019 RMK A01 T00071012  RH  087%=      5-min Rain = 0
KUM1 141844Z 21015KT 01/M01 A3019 RMK A01 T00071011  RH  087%=      5-min Rain = 0
KUM1 141845Z 21018KT 01/M01 A3019 RMK A01 T00081011  RH  087%=      5-min Rain = 0
KUM1 141846Z 21017KT 01/M01 A3019 RMK A01 T00081011  RH  087%=      5-min Rain = 0
KUM1 141847Z 21017KT 01/M01 A3019 RMK A01 T00081012  RH  087%=      5-min Rain = 0
KUM1 141848Z 20015KT 01/M01 A3019 RMK A01 T00081012  RH  087%=      5-min Rain = 0
KUM1 141849Z 20017KT 01/M01 A3018 RMK A01 T00091010  RH  087%=      5-min Rain = 0
KUM1 141850Z 21014G19KT 01/M01 A3018 RMK A01 T00101010  RH  087%=      5-min Rain = 0
KUM1 141851Z 20015KT 01/M01 A3018 RMK A01 T00121008  RH  087%=      5-min Rain = 0
KUM1 141852Z 20014KT 01/M01 A3018 RMK A01 T00131007  RH  086%=      5-min Rain = 0
KUM1 141853Z 20014KT 02/M01 A3018 RMK A01 T00151007  RH  086%=      5-min Rain = 0
KUM1 141854Z 21015KT 02/M01 A3018 RMK A01 T00151008  RH  085%=      5-min Rain = 0
KUM1 141855Z 21016KT 02/M01 A3018 RMK A01 T00151009  RH  084%=      5-min Rain = 0
KUM1 141856Z 21016KT 01/M01 A3018 RMK A01 T00131011  RH  084%=      5-min Rain = 0
KUM1 141857Z 21014KT 01/M01 A3018 RMK A01 T00121010  RH  085%=      5-min Rain = 0
KUM1 141858Z 20015KT 01/M01 A3018 RMK A01 T00131008  RH  086%=      5-min Rain = 0
KUM1 141859Z 20016KT 01/M01 A3018 RMK A01 T00141008  RH  085%=      5-min Rain = 0
KUM1 141900Z 21017KT 01/M01 A3018 RMK A01 T00141009  RH  085%=      5-min Rain = 0
KUM1 141901Z 21017KT 01/M01 A3018 RMK A01 T00141008  RH  085%=      5-min Rain = 0
KUM1 141902Z 21018KT 02/M01 A3018 RMK A01 T00151009  RH  085%=      5-min Rain = 0
KUM1 141903Z 21018KT 01/M01 A3018 RMK A01 T00141010  RH  084%=      5-min Rain = 0
KUM1 141904Z 21017KT 01/M01 A3018 RMK A01 T00131011  RH  084%=      5-min Rain = 0
KUM1 141905Z 21018KT 01/M01 A3018 RMK A01 T00121010  RH  085%=      5-min Rain = 0
KUM1 141906Z 21018KT 01/M01 A3018 RMK A01 T00121010  RH  085%=      5-min Rain = 0
KUM1 141907Z 21017KT 01/M01 A3018 RMK A01 T00131010  RH  085%=      5-min Rain = 0
KUM1 141908Z 21016KT 01/M01 A3018 RMK A01 T00121011  RH  085%=      5-min Rain = 0
KUM1 141909Z 21013G21KT 01/M01 A3018 RMK A01 T00121011  RH  085%=      5-min Rain = 0
KUM1 141910Z 20018KT 01/M01 A3018 RMK A01 T00141008  RH  086%=      5-min Rain = 0
KUM1 141911Z 20017KT 02/M01 A3018 RMK A01 T00151008  RH  085%=      5-min Rain = 0
KUM1 141912Z 20019KT 02/M01 A3018 RMK A01 T00151009  RH  084%=      5-min Rain = 0
KUM1 141913Z 20020KT 01/M01 A3018 RMK A01 T00141010  RH  084%=      5-min Rain = 0
KUM1 141914Z 20020KT 01/M01 A3018 RMK A01 T00131011  RH  084%=      5-min Rain = 0
KUM1 141915Z 20017KT 01/M01 A3018 RMK A01 T00131010  RH  085%=      5-min Rain = 0
KUM1 141916Z 20017KT 02/M01 A3018 RMK A01 T00151007  RH  085%=      5-min Rain = 0
KUM1 141917Z 21017KT 02/M01 A3018 RMK A01 T00171006  RH  085%=      5-min Rain = 0
KUM1 141918Z 21019KT 02/M01 A3017 RMK A01 T00161009  RH  084%=      5-min Rain = 0
KUM1 141919Z 21019KT 02/M01 A3017 RMK A01 T00151009  RH  084%=      5-min Rain = 0
KUM1 141920Z 21018KT 01/M01 A3017 RMK A01 T00141010  RH  084%=      5-min Rain = 0
KUM1 141921Z 20018KT 02/M01 A3017 RMK A01 T00151009  RH  084%=      5-min Rain = 0
KUM1 141922Z 20017KT 02/M01 A3017 RMK A01 T00161008  RH  084%=      5-min Rain = 0
KUM1 141923Z 20019KT 02/M01 A3017 RMK A01 T00161008  RH  084%=      5-min Rain = 0
KUM1 141924Z 20019KT 02/M01 A3017 RMK A01 T00161009  RH  084%=      5-min Rain = 0
KUM1 141925Z 20018KT 02/M01 A3017 RMK A01 T00151010  RH  084%=      5-min Rain = 0
KUM1 141926Z 21016KT 02/M01 A3017 RMK A01 T00151009  RH  084%=      5-min Rain = 0
KUM1 141927Z 21015KT 02/M01 A3017 RMK A01 T00161007  RH  085%=      5-min Rain = 0
KUM1 141928Z 21017KT 02/M01 A3017 RMK A01 T00171006  RH  084%=      5-min Rain = 0
KUM1 141929Z 21016KT 02/M01 A3017 RMK A01 T00161009  RH  084%=      5-min Rain = 0
KUM1 141930Z 20016KT 02/M01 A3016 RMK A01 T00171007  RH  085%=      5-min Rain = 0
KUM1 141931Z 20016KT 02/M01 A3016 RMK A01 T00181006  RH  084%=      5-min Rain = 0
KUM1 141932Z 21016G22KT 02/M01 A3016 RMK A01 T00191006  RH  084%=      5-min Rain = 0
KUM1 141933Z 20018KT 02/M01 A3016 RMK A01 T00191006  RH  083%=      5-min Rain = 0
KUM1 141934Z 21019KT 02/M01 A3016 RMK A01 T00191007  RH  083%=      5-min Rain = 0
KUM1 141935Z 21017G22KT 02/M01 A3016 RMK A01 T00181008  RH  083%=      5-min Rain = 0
KUM1 141936Z 21018KT 02/M01 A3016 RMK A01 T00191007  RH  083%=      5-min Rain = 0
KUM1 141937Z 20018KT 02/M01 A3016 RMK A01 T00191006  RH  084%=      5-min Rain = 0
KUM1 141938Z 20018KT 02/M01 A3015 RMK A01 T00191007  RH  083%=      5-min Rain = 0
KUM1 141939Z 20017G22KT 02/M01 A3015 RMK A01 T00201006  RH  083%=      5-min Rain = 0
KUM1 141940Z 21017KT 02/M00 A3016 RMK A01 T00221004  RH  083%=      5-min Rain = 0
KUM1 141941Z 21017KT 02/M01 A3015 RMK A01 T00221005  RH  083%=      5-min Rain = 0
KUM1 141942Z 21015KT 02/M01 A3015 RMK A01 T00211006  RH  082%=      5-min Rain = 0
KUM1 141943Z 20016KT 02/M00 A3015 RMK A01 T00221004  RH  083%=      5-min Rain = 0
KUM1 141944Z 20017KT 02/M00 A3015 RMK A01 T00241002  RH  083%=      5-min Rain = 0
KUM1 141945Z 21018KT 03/M00 A3015 RMK A01 T00251003  RH  082%=      5-min Rain = 0
KUM1 141946Z 20018KT 02/M01 A3015 RMK A01 T00241005  RH  081%=      5-min Rain = 0
KUM1 141947Z 20018KT 02/M01 A3015 RMK A01 T00241005  RH  081%=      5-min Rain = 0
KUM1 141948Z 21018G23KT 02/M01 A3015 RMK A01 T00241005  RH  081%=      5-min Rain = 0
KUM1 141949Z 21018KT 02/M01 A3015 RMK A01 T00231006  RH  082%=      5-min Rain = 0
KUM1 141950Z 21016KT 02/M01 A3015 RMK A01 T00221005  RH  082%=      5-min Rain = 0
KUM1 141951Z 21017KT 02/M00 A3015 RMK A01 T00231003  RH  082%=      5-min Rain = 0
KUM1 141952Z 21018G23KT 02/M01 A3015 RMK A01 T00231005  RH  082%=      5-min Rain = 0
KUM1 141953Z 21018KT 02/M01 A3015 RMK A01 T00211007  RH  082%=      5-min Rain = 0
KUM1 141954Z 22016KT 02/M01 A3015 RMK A01 T00181010  RH  082%=      5-min Rain = 0
KUM1 141955Z 21018KT 02/M01 A3015 RMK A01 T00161010  RH  083%=      5-min Rain = 0
KUM1 141956Z 22015G20KT 02/M01 A3015 RMK A01 T00161009  RH  083%=      5-min Rain = 0
KUM1 141957Z 22016KT 02/M01 A3014 RMK A01 T00191006  RH  084%=      5-min Rain = 0
KUM1 141958Z 22018KT 02/M01 A3014 RMK A01 T00211005  RH  083%=      5-min Rain = 0
KUM1 141959Z 22018KT 02/M01 A3014 RMK A01 T00221005  RH  082%=      5-min Rain = 0
KUM1 142000Z 22016KT 02/M00 A3015 RMK A01 T00241003  RH  083%=      5-min Rain = 0
KUM1 142001Z 22017KT 03/M00 A3015 RMK A01 T00261001  RH  082%=      5-min Rain = 0
KUM1 142002Z 22016KT 03/M00 A3015 RMK A01 T00251004  RH  081%=      5-min Rain = 0
KUM1 142003Z 21016G22KT 02/M00 A3014 RMK A01 T00241004  RH  082%=      5-min Rain = 0
KUM1 142004Z 21017KT 03/M00 A3014 RMK A01 T00251004  RH  082%=      5-min Rain = 0
KUM1 142005Z 20016KT 02/M01 A3014 RMK A01 T00231005  RH  082%=      5-min Rain = 0
KUM1 142006Z 20015KT 02/M00 A3014 RMK A01 T00231004  RH  083%=      5-min Rain = 0
KUM1 142007Z 21016KT 03/M00 A3014 RMK A01 T00251001  RH  083%=      5-min Rain = 0
KUM1 142008Z 21015KT 03/M00 A3014 RMK A01 T00261002  RH  082%=      5-min Rain = 0
KUM1 142009Z 20014G19KT 03/M00 A3014 RMK A01 T00251004  RH  081%=      5-min Rain = 0
KUM1 142010Z 21018KT 03/M00 A3014 RMK A01 T00251004  RH  082%=      5-min Rain = 0
KUM1 142011Z 20017KT 02/M01 A3014 RMK A01 T00241005  RH  081%=      5-min Rain = 0
KUM1 142012Z 20015KT 02/M01 A3014 RMK A01 T00231005  RH  082%=      5-min Rain = 0
KUM1 142013Z 19017KT 02/M00 A3014 RMK A01 T00231003  RH  082%=      5-min Rain = 0
KUM1 142014Z 20015KT 02/M01 A3014 RMK A01 T00231005  RH  082%=      5-min Rain = 0
KUM1 142015Z 20018KT 02/M01 A3014 RMK A01 T00221005  RH  082%=      5-min Rain = 0
KUM1 142016Z 20016KT 02/M01 A3014 RMK A01 T00221005  RH  082%=      5-min Rain = 0
KUM1 142017Z 20016KT 02/M00 A3014 RMK A01 T00221004  RH  083%=      5-min Rain = 0
KUM1 142018Z 20017KT 02/M00 A3014 RMK A01 T00241002  RH  083%=      5-min Rain = 0
KUM1 142019Z 21017G22KT 02/M00 A3014 RMK A01 T00241004  RH  082%=      5-min Rain = 0
KUM1 142020Z 21016KT 02/M01 A3014 RMK A01 T00231005  RH  082%=      5-min Rain = 0
KUM1 142021Z 20017KT 02/M01 A3014 RMK A01 T00231005  RH  082%=      5-min Rain = 0
KUM1 142022Z 21014KT 02/M01 A3013 RMK A01 T00231005  RH  082%=      5-min Rain = 0
KUM1 142023Z 21013KT 02/M00 A3013 RMK A01 T00241002  RH  083%=      5-min Rain = 0
KUM1 142024Z 22018KT 03/M00 A3013 RMK A01 T00251002  RH  082%=      5-min Rain = 0
KUM1 142025Z 22018KT 02/M01 A3013 RMK A01 T00231005  RH  081%=      5-min Rain = 0
KUM1 142026Z 22018KT 02/M01 A3013 RMK A01 T00221005  RH  082%=      5-min Rain = 0
KUM1 142027Z 22017KT 02/M01 A3013 RMK A01 T00211005  RH  083%=      5-min Rain = 0
KUM1 142028Z 21017KT 02/M01 A3013 RMK A01 T00211005  RH  083%=      5-min Rain = 0
KUM1 142029Z 21017KT 02/M00 A3013 RMK A01 T00221004  RH  083%=      5-min Rain = 0
KUM1 142030Z 21017KT 02/M01 A3013 RMK A01 T00221005  RH  082%=      5-min Rain = 0
KUM1 142031Z 20017KT 02/M00 A3012 RMK A01 T00231004  RH  082%=      5-min Rain = 0
KUM1 142032Z 20017KT 03/M00 A3012 RMK A01 T00251002  RH  083%=      5-min Rain = 0
KUM1 142033Z 20017KT 03/M00 A3012 RMK A01 T00261001  RH  082%=      5-min Rain = 0
KUM1 142034Z 20019KT 03/00 A3012 RMK A01 T002800-0  RH  082%=      5-min Rain = 0
KUM1 142035Z 21016KT 03/M00 A3012 RMK A01 T00281001  RH  081%=      5-min Rain = 0
KUM1 142036Z 20017KT 03/00 A3012 RMK A01 T00290000  RH  082%=      5-min Rain = 0
KUM1 142037Z 20017KT 03/M00 A3012 RMK A01 T00291001  RH  081%=      5-min Rain = 0
KUM1 142038Z 20020KT 03/M00 A3012 RMK A01 T00281001  RH  081%=      5-min Rain = 0
KUM1 142039Z 20018KT 03/M00 A3012 RMK A01 T00271003  RH  081%=      5-min Rain = 0
KUM1 142040Z 21017KT 03/M00 A3012 RMK A01 T00261003  RH  081%=      5-min Rain = 0
KUM1 142041Z 21019KT 03/M00 A3012 RMK A01 T00251003  RH  082%=      5-min Rain = 0
KUM1 142042Z 21018KT 02/M00 A3012 RMK A01 T00241004  RH  082%=      5-min Rain = 0
KUM1 142043Z 20018KT 02/M00 A3012 RMK A01 T00231004  RH  082%=      5-min Rain = 0
KUM1 142044Z 20017KT 02/M00 A3012 RMK A01 T00231003  RH  083%=      5-min Rain = 0
KUM1 142045Z 21017KT 02/M00 A3012 RMK A01 T00231004  RH  082%=      5-min Rain = 0
KUM1 142046Z 20017G22KT 02/M00 A3012 RMK A01 T00241002  RH  083%=      5-min Rain = 0
KUM1 142047Z 21017KT 03/M00 A3012 RMK A01 T00261001  RH  083%=      5-min Rain = 0
KUM1 142048Z 21019KT 03/00 A3012 RMK A01 T00280001  RH  082%=      5-min Rain = 0
KUM1 142049Z 20019G24KT 03/00 A3012 RMK A01 T00290001  RH  082%=      5-min Rain = 0
KUM1 142050Z 20018G23KT 03/00 A3012 RMK A01 T00300001  RH  081%=      5-min Rain = 0
KUM1 142051Z 20017KT 03/00 A3012 RMK A01 T00310001  RH  081%=      5-min Rain = 0
KUM1 142052Z 20019KT 03/00 A3012 RMK A01 T00310001  RH  081%=      5-min Rain = 0
KUM1 142053Z 20018KT 03/00 A3012 RMK A01 T00310001  RH  080%=      5-min Rain = 0
KUM1 142054Z 20017KT 03/00 A3012 RMK A01 T003000-0  RH  080%=      5-min Rain = 0
KUM1 142055Z 20018G23KT 03/00 A3011 RMK A01 T00300000  RH  081%=      5-min Rain = 0
KUM1 142056Z 20017G22KT 03/00 A3011 RMK A01 T00300000  RH  081%=      5-min Rain = 0
KUM1 142057Z 20018KT 03/00 A3011 RMK A01 T00300001  RH  081%=      5-min Rain = 0
KUM1 142058Z 20017KT 03/00 A3011 RMK A01 T00310002  RH  081%=      5-min Rain = 0
KUM1 142059Z 20016KT 03/00 A3011 RMK A01 T00320002  RH  081%=      5-min Rain = 0
KUM1 142100Z 20018KT 03/00 A3011 RMK A01 T00330003  RH  081%=      5-min Rain = 0
KUM1 142101Z 20018KT 03/00 A3011 RMK A01 T00330003  RH  080%=      5-min Rain = 0
KUM1 142102Z 21017KT 03/00 A3011 RMK A01 T00330003  RH  080%=      5-min Rain = 0
KUM1 142103Z 20018KT 03/00 A3011 RMK A01 T00330002  RH  080%=      5-min Rain = 0
KUM1 142104Z 20017KT 03/00 A3011 RMK A01 T00320002  RH  080%=      5-min Rain = 0
KUM1 142105Z 20019KT 03/00 A3011 RMK A01 T00320002  RH  081%=      5-min Rain = 0
KUM1 142106Z 20019KT 03/00 A3011 RMK A01 T00320001  RH  080%=      5-min Rain = 0
KUM1 142107Z 20019KT 03/00 A3011 RMK A01 T00310000  RH  080%=      5-min Rain = 0
KUM1 142108Z 21016KT 03/00 A3011 RMK A01 T00300001  RH  081%=      5-min Rain = 0
KUM1 142109Z 20016KT 03/00 A3011 RMK A01 T00320003  RH  082%=      5-min Rain = 0
KUM1 142110Z 20016KT 03/00 A3011 RMK A01 T00320003  RH  081%=      5-min Rain = 0
KUM1 142111Z 20016KT 03/00 A3011 RMK A01 T00320001  RH  081%=      5-min Rain = 0
KUM1 142112Z 21015KT 03/00 A3011 RMK A01 T00310002  RH  081%=      5-min Rain = 0
KUM1 142113Z 20015KT 03/00 A3011 RMK A01 T00320003  RH  082%=      5-min Rain = 0
KUM1 142114Z 20020KT 03/00 A3011 RMK A01 T00330004  RH  081%=      5-min Rain = 0
KUM1 142115Z 21017KT 03/00 A301 RMK A01 T00330002  RH  080%=      5-min Rain = 0
KUM1 142116Z 21019KT 03/00 A301 RMK A01 T00330002  RH  080%=      5-min Rain = 0
KUM1 142117Z 21018G23KT 03/00 A301 RMK A01 T00320001  RH  080%=      5-min Rain = 0
KUM1 142118Z 21016KT 03/00 A301 RMK A01 T00310002  RH  081%=      5-min Rain = 0
KUM1 142119Z 20016KT 03/00 A301 RMK A01 T00310002  RH  081%=      5-min Rain = 0
KUM1 142120Z 19017KT 03/00 A301 RMK A01 T00320004  RH  081%=      5-min Rain = 0
KUM1 142121Z 20017KT 03/00 A301 RMK A01 T00330003  RH  081%=      5-min Rain = 0
KUM1 142122Z 20018G23KT 03/00 A301 RMK A01 T00330003  RH  081%=      5-min Rain = 0
KUM1 142123Z 20019KT 03/00 A301 RMK A01 T00320002  RH  081%=      5-min Rain = 0
KUM1 142124Z 20019KT 03/00 A301 RMK A01 T00320003  RH  081%=      5-min Rain = 0
KUM1 142125Z 21018KT 03/01 A3009 RMK A01 T00340005  RH  081%=      5-min Rain = 0
KUM1 142126Z 20017KT 04/01 A3009 RMK A01 T00360006  RH  081%=      5-min Rain = 0
KUM1 142127Z 19019KT 04/01 A3009 RMK A01 T00360005  RH  080%=      5-min Rain = 0
KUM1 142128Z 20016G21KT 04/00 A3009 RMK A01 T00360004  RH  080%=      5-min Rain = 0
KUM1 142129Z 20019KT 04/01 A3009 RMK A01 T00360005  RH  080%=      5-min Rain = 0
KUM1 142130Z 20020KT 04/01 A3009 RMK A01 T00370005  RH  080%=      5-min Rain = 0
KUM1 142131Z 20018G24KT 04/00 A3009 RMK A01 T00360004  RH  080%=      5-min Rain = 0
KUM1 142132Z 20021G26KT 04/01 A3009 RMK A01 T00360005  RH  080%=      5-min Rain = 0
KUM1 142133Z 20019KT 04/00 A3009 RMK A01 T00370004  RH  079%=      5-min Rain = 0
KUM1 142134Z 20019KT 04/00 A3009 RMK A01 T00360004  RH  079%=      5-min Rain = 0
KUM1 142135Z 20021KT 04/01 A3009 RMK A01 T00370005  RH  080%=      5-min Rain = 0
KUM1 142136Z 20024KT 04/00 A3009 RMK A01 T00370004  RH  079%=      5-min Rain = 0
KUM1 142137Z 20021KT 04/00 A3009 RMK A01 T00360003  RH  079%=      5-min Rain = 0
KUM1 142138Z 20021KT 03/00 A3009 RMK A01 T00340002  RH  080%=      5-min Rain = 0
KUM1 142139Z 20024KT 03/00 A3009 RMK A01 T00340003  RH  080%=      5-min Rain = 0
KUM1 142140Z 20022KT 03/00 A3009 RMK A01 T00320001  RH  080%=      5-min Rain = 0
KUM1 142141Z 21022KT 03/00 A3009 RMK A01 T00320002  RH  081%=      5-min Rain = 0
KUM1 142142Z 21018KT 03/00 A3009 RMK A01 T00330004  RH  081%=      5-min Rain = 0
KUM1 142143Z 21020KT 04/01 A3009 RMK A01 T00350005  RH  081%=      5-min Rain = 0
KUM1 142144Z 21020KT 04/01 A3009 RMK A01 T00350005  RH  080%=      5-min Rain = 0
KUM1 142145Z 20017KT 04/01 A3009 RMK A01 T00360005  RH  080%=      5-min Rain = 0
KUM1 142146Z 20017KT 04/01 A3009 RMK A01 T00370007  RH  080%=      5-min Rain = 0
KUM1 142147Z 20018KT 04/01 A3009 RMK A01 T00380007  RH  080%=      5-min Rain = 0
KUM1 142148Z 19019G24KT 04/01 A3008 RMK A01 T00390006  RH  079%=      5-min Rain = 0
KUM1 142149Z 20019KT 04/00 A3008 RMK A01 T00360002  RH  079%=      5-min Rain = 0
KUM1 142150Z 19020KT 03/00 A3008 RMK A01 T00340002  RH  080%=      5-min Rain = 0
KUM1 142151Z 19021KT 03/00 A3008 RMK A01 T00340003  RH  080%=      5-min Rain = 0
KUM1 142152Z 19020KT 04/01 A3008 RMK A01 T00350005  RH  081%=      5-min Rain = 0
KUM1 142153Z 19016G21KT 04/00 A3009 RMK A01 T00350004  RH  080%=      5-min Rain = 0
KUM1 142154Z 19019KT 04/00 A3008 RMK A01 T00350004  RH  080%=      5-min Rain = 0
KUM1 142155Z 19019KT 03/00 A3008 RMK A01 T00340003  RH  081%=      5-min Rain = 0
KUM1 142156Z 20017KT 03/00 A3008 RMK A01 T00320003  RH  081%=      5-min Rain = 0
KUM1 142157Z 19019KT 03/00 A3008 RMK A01 T00330004  RH  082%=      5-min Rain = 0
KUM1 142158Z 20019KT 03/01 A3008 RMK A01 T00330005  RH  082%=      5-min Rain = 0
KUM1 142159Z 20018KT 04/01 A3009 RMK A01 T00350006  RH  081%=      5-min Rain = 0
KUM1 142200Z 20019KT 04/01 A3009 RMK A01 T00360006  RH  080%=      5-min Rain = 0
KUM1 142201Z 20018KT 04/01 A3009 RMK A01 T00370006  RH  080%=      5-min Rain = 0
KUM1 142202Z 20021KT 04/01 A3009 RMK A01 T00370006  RH  080%=      5-min Rain = 0
KUM1 142203Z 20019KT 04/00 A3009 RMK A01 T00350003  RH  080%=      5-min Rain = 0
KUM1 142204Z 19018KT 03/00 A3009 RMK A01 T00340004  RH  081%=      5-min Rain = 0
KUM1 142205Z 19018G23KT 03/01 A3009 RMK A01 T00340005  RH  081%=      5-min Rain = 0
KUM1 142206Z 19019KT 03/00 A3009 RMK A01 T00330004  RH  081%=      5-min Rain = 0
KUM1 142207Z 19018KT 03/00 A3009 RMK A01 T00330004  RH  081%=      5-min Rain = 0
KUM1 142208Z 19018KT 03/00 A3008 RMK A01 T00330004  RH  081%=      5-min Rain = 0
KUM1 142209Z 20016KT 03/00 A3008 RMK A01 T00330004  RH  081%=      5-min Rain = 0
KUM1 142210Z 20018KT 03/01 A3009 RMK A01 T00340005  RH  082%=      5-min Rain = 0
KUM1 142211Z 19018G23KT 03/00 A3009 RMK A01 T00330004  RH  081%=      5-min Rain = 0
KUM1 142212Z 19019KT 03/00 A3009 RMK A01 T00310003  RH  081%=      5-min Rain = 0
KUM1 142213Z 19019KT 03/00 A3008 RMK A01 T00310003  RH  082%=      5-min Rain = 0
KUM1 142214Z 20018KT 03/00 A3008 RMK A01 T00300003  RH  082%=      5-min Rain = 0
KUM1 142215Z 20019G24KT 03/00 A3008 RMK A01 T00300003  RH  082%=      5-min Rain = 0
KUM1 142216Z 20019G24KT 03/00 A3008 RMK A01 T00310004  RH  082%=      5-min Rain = 0
KUM1 142217Z 20021KT 03/00 A3008 RMK A01 T00330004  RH  082%=      5-min Rain = 0
KUM1 142218Z 20019KT 03/00 A3008 RMK A01 T00330003  RH  081%=      5-min Rain = 0
KUM1 142219Z 20017KT 03/00 A3008 RMK A01 T00320002  RH  081%=      5-min Rain = 0
KUM1 142220Z 21018KT 03/00 A3008 RMK A01 T00320003  RH  081%=      5-min Rain = 0
KUM1 142221Z 20017KT 03/00 A3008 RMK A01 T00310003  RH  082%=      5-min Rain = 0
KUM1 142222Z 21018KT 03/00 A3008 RMK A01 T00310003  RH  082%=      5-min Rain = 0
KUM1 142223Z 20018KT 03/00 A3008 RMK A01 T00320004  RH  082%=      5-min Rain = 0
KUM1 142224Z 20017KT 03/00 A3008 RMK A01 T00320004  RH  082%=      5-min Rain = 0
KUM1 142225Z 20019KT 03/01 A3008 RMK A01 T00330005  RH  082%=      5-min Rain = 0
KUM1 142226Z 20020KT 03/00 A3008 RMK A01 T00330004  RH  081%=      5-min Rain = 0
KUM1 142227Z 19017KT 03/00 A3008 RMK A01 T00330003  RH  081%=      5-min Rain = 0
KUM1 142228Z 19016G21KT 03/01 A3008 RMK A01 T00340005  RH  081%=      5-min Rain = 0
KUM1 142229Z 19017KT 04/01 A3008 RMK A01 T00350006  RH  081%=      5-min Rain = 0
KUM1 142230Z 20018KT 04/01 A3008 RMK A01 T00360006  RH  080%=      5-min Rain = 0
KUM1 142231Z 19014KT 04/01 A3008 RMK A01 T00360006  RH  081%=      5-min Rain = 0
KUM1 142232Z 19021KT 04/01 A3008 RMK A01 T00370007  RH  080%=      5-min Rain = 0
KUM1 142233Z 19020KT 04/00 A3008 RMK A01 T00350003  RH  080%=      5-min Rain = 0
KUM1 142234Z 19018KT 03/00 A3008 RMK A01 T00330002  RH  080%=      5-min Rain = 0
KUM1 142235Z 19019KT 03/00 A3008 RMK A01 T00320003  RH  081%=      5-min Rain = 0
KUM1 142236Z 20020KT 03/00 A3008 RMK A01 T00330004  RH  081%=      5-min Rain = 0
KUM1 142237Z 19018KT 03/01 A3008 RMK A01 T00340005  RH  081%=      5-min Rain = 0
KUM1 142238Z 20018KT 04/01 A3008 RMK A01 T00360006  RH  081%=      5-min Rain = 0
KUM1 142239Z 20019KT 04/01 A3008 RMK A01 T00360006  RH  080%=      5-min Rain = 0
KUM1 142240Z 20021KT 03/00 A3008 RMK A01 T00340003  RH  080%=      5-min Rain = 0
KUM1 142241Z 20021KT 03/00 A3008 RMK A01 T00320002  RH  081%=      5-min Rain = 0
KUM1 142242Z 20019G24KT 03/00 A3008 RMK A01 T00300001  RH  081%=      5-min Rain = 0
KUM1 142243Z 20018KT 03/00 A3008 RMK A01 T00290002  RH  082%=      5-min Rain = 0
KUM1 142244Z 19018KT 03/00 A3008 RMK A01 T00290003  RH  083%=      5-min Rain = 0
KUM1 142245Z 19018KT 03/00 A3008 RMK A01 T00280002  RH  083%=      5-min Rain = 0
KUM1 142246Z 19016KT 03/00 A3008 RMK A01 T00280003  RH  084%=      5-min Rain = 0
KUM1 142247Z 20019KT 03/00 A3008 RMK A01 T00290004  RH  084%=      5-min Rain = 0
KUM1 142248Z 20020KT 03/00 A3008 RMK A01 T00300004  RH  083%=      5-min Rain = 0
KUM1 142249Z 20019G24KT 03/00 A3008 RMK A01 T00290003  RH  083%=      5-min Rain = 0
KUM1 142250Z 19019KT 03/00 A3008 RMK A01 T00290004  RH  083%=      5-min Rain = 0
KUM1 142251Z 19020KT 03/00 A3008 RMK A01 T00290003  RH  083%=      5-min Rain = 0
KUM1 142252Z 19018KT 03/00 A3008 RMK A01 T00280002  RH  083%=      5-min Rain = 0
KUM1 142253Z 19017KT 03/00 A3008 RMK A01 T00270003  RH  084%=      5-min Rain = 0
KUM1 142254Z 20018KT 03/00 A3008 RMK A01 T00280003  RH  084%=      5-min Rain = 0
KUM1 142255Z 20019KT 03/00 A3008 RMK A01 T00280004  RH  084%=      5-min Rain = 0
KUM1 142256Z 19021KT 03/00 A3008 RMK A01 T00280003  RH  084%=      5-min Rain = 0
KUM1 142257Z 19020KT 03/00 A3008 RMK A01 T00270003  RH  084%=      5-min Rain = 0
KUM1 142258Z 19019KT 03/00 A3008 RMK A01 T00270002  RH  084%=      5-min Rain = 0
KUM1 142259Z 19018KT 03/00 A3008 RMK A01 T00260002  RH  084%=      5-min Rain = 0
KUM1 142300Z 20018KT 03/00 A3008 RMK A01 T00260003  RH  085%=      5-min Rain = 0
KUM1 142301Z 19020KT 03/00 A3008 RMK A01 T00260003  RH  085%=      5-min Rain = 0
KUM1 142302Z 20018KT 03/00 A3008 RMK A01 T00260003  RH  085%=      5-min Rain = 0
KUM1 142303Z 19018KT 03/00 A3008 RMK A01 T00270004  RH  085%=      5-min Rain = 0
KUM1 142304Z 19018G23KT 03/00 A3008 RMK A01 T00270004  RH  085%=      5-min Rain = 0
KUM1 142305Z 19020KT 03/00 A3008 RMK A01 T00270004  RH  084%=      5-min Rain = 0
KUM1 142306Z 19022KT 03/00 A3008 RMK A01 T00270003  RH  084%=      5-min Rain = 0
KUM1 142307Z 19021KT 03/00 A3008 RMK A01 T00270003  RH  084%=      5-min Rain = 0
KUM1 142308Z 19018KT 03/00 A3008 RMK A01 T00260002  RH  084%=      5-min Rain = 0
KUM1 142309Z 20017KT 03/00 A3008 RMK A01 T00260003  RH  085%=      5-min Rain = 0
KUM1 142310Z 20017KT 03/00 A3008 RMK A01 T00260003  RH  085%=      5-min Rain = 0
KUM1 142311Z 20014KT 03/00 A3008 RMK A01 T00260003  RH  085%=      5-min Rain = 0
KUM1 142312Z 19014KT 03/00 A3008 RMK A01 T00260003  RH  085%=      5-min Rain = 0
KUM1 142313Z 19017KT 03/00 A3008 RMK A01 T00260003  RH  085%=      5-min Rain = 0
KUM1 142314Z 20015KT 03/00 A3008 RMK A01 T00250002  RH  085%=      5-min Rain = 0
KUM1 142315Z 19013KT 03/00 A3008 RMK A01 T00250002  RH  085%=      5-min Rain = 0
KUM1 142316Z 20014KT 03/00 A3008 RMK A01 T00260003  RH  085%=      5-min Rain = 0
KUM1 142317Z 19016KT 03/00 A3008 RMK A01 T00260003  RH  085%=      5-min Rain = 0
KUM1 142318Z 19016KT 03/00 A3007 RMK A01 T00260003  RH  085%=      5-min Rain = 0
KUM1 142319Z 19015KT 03/00 A3007 RMK A01 T00250003  RH  085%=      5-min Rain = 0
KUM1 142320Z 20016KT 03/00 A3007 RMK A01 T00250003  RH  085%=      5-min Rain = 0
KUM1 142321Z 19017KT 03/00 A3007 RMK A01 T00250003  RH  085%=      5-min Rain = 0
KUM1 142322Z 19016KT 03/00 A3007 RMK A01 T00250003  RH  085%=      5-min Rain = 0
KUM1 142323Z 20016KT 02/00 A3007 RMK A01 T00240002  RH  085%=      5-min Rain = 0
KUM1 142324Z 19014G19KT 02/00 A3007 RMK A01 T00240002  RH  086%=      5-min Rain = 0
KUM1 142325Z 19017KT 02/00 A3007 RMK A01 T00240003  RH  086%=      5-min Rain = 0
KUM1 142326Z 19019KT 02/00 A3007 RMK A01 T00240003  RH  086%=      5-min Rain = 0
KUM1 142327Z 19018KT 02/00 A3007 RMK A01 T00230002  RH  086%=      5-min Rain = 0
KUM1 142328Z 19016KT 02/00 A3007 RMK A01 T00230002  RH  086%=      5-min Rain = 0
KUM1 142329Z 19017KT 02/00 A3007 RMK A01 T00230002  RH  086%=      5-min Rain = 0
KUM1 142330Z 20017KT 02/00 A3007 RMK A01 T00230002  RH  086%=      5-min Rain = 0
KUM1 142331Z 19018KT 02/00 A3007 RMK A01 T00230002  RH  086%=      5-min Rain = 0
KUM1 142332Z 19017KT 02/00 A3007 RMK A01 T00230002  RH  086%=      5-min Rain = 0
KUM1 142333Z 19018KT 02/00 A3007 RMK A01 T00230002  RH  086%=      5-min Rain = 0
KUM1 142334Z 19018KT 02/00 A3007 RMK A01 T00230002  RH  086%=      5-min Rain = 0
KUM1 142335Z 19017KT 02/00 A3007 RMK A01 T00230002  RH  086%=      5-min Rain = 0
KUM1 142336Z 19016KT 02/00 A3007 RMK A01 T00230002  RH  086%=      5-min Rain = 0
KUM1 142337Z 18017KT 02/00 A3007 RMK A01 T00230002  RH  086%=      5-min Rain = 0
KUM1 142338Z 19019KT 02/00 A3007 RMK A01 T00230002  RH  086%=      5-min Rain = 0
KUM1 142339Z 19016KT 02/00 A3007 RMK A01 T00230002  RH  086%=      5-min Rain = 0
KUM1 142340Z 19013KT 02/00 A3007 RMK A01 T00230002  RH  086%=      5-min Rain = 0
KUM1 142341Z 19017KT 02/00 A3007 RMK A01 T00230003  RH  086%=      5-min Rain = 0
KUM1 142342Z 19018G23KT 02/00 A3007 RMK A01 T00230002  RH  086%=      5-min Rain = 0
KUM1 142343Z 20019G24KT 02/00 A3007 RMK A01 T00240002  RH  086%=      5-min Rain = 0
KUM1 142344Z 19016KT 02/00 A3006 RMK A01 T00230002  RH  086%=      5-min Rain = 0
KUM1 142345Z 19016KT 02/00 A3006 RMK A01 T00230001  RH  086%=      5-min Rain = 0
KUM1 142346Z 20018KT 02/00 A3006 RMK A01 T00210000  RH  086%=      5-min Rain = 0
KUM1 142347Z 19016KT 02/00 A3006 RMK A01 T002000-0  RH  086%=      5-min Rain = 0
KUM1 142348Z 20020KT 02/00 A3006 RMK A01 T00200000  RH  087%=      5-min Rain = 0
KUM1 142349Z 19023G28KT 02/M00 A3006 RMK A01 T00191001  RH  087%=      5-min Rain = 0
KUM1 142350Z 20025KT 02/M00 A3006 RMK A01 T00181001  RH  087%=      5-min Rain = 0
KUM1 142351Z 20020G25KT 02/M00 A3006 RMK A01 T00171001  RH  088%=      5-min Rain = 0
KUM1 142352Z 20023G28KT 02/M00 A3006 RMK A01 T00171001  RH  088%=      5-min Rain = 0
KUM1 142353Z 20025KT 02/00 A3006 RMK A01 T001700-0  RH  088%=      5-min Rain = 0
KUM1 142354Z 20022KT 02/M00 A3006 RMK A01 T00171001  RH  088%=      5-min Rain = 0
KUM1 142355Z 20022KT 02/M00 A3006 RMK A01 T00161001  RH  089%=      5-min Rain = 0
KUM1 142356Z 19022KT 02/M00 A3006 RMK A01 T00161001  RH  089%=      5-min Rain = 0
KUM1 142357Z 20024G29KT 02/M00 A3005 RMK A01 T00161001  RH  089%=      5-min Rain = 0
KUM1 142358Z 20020KT 02/M00 A3006 RMK A01 T00161001  RH  089%=      5-min Rain = 0
KUM1 142359Z 20020G25KT 02/M00 A3006 RMK A01 T00151001  RH  089%=      5-min Rain = 0
KUM1 150000Z 20021KT 02/M00 A3006 RMK A01 T00151001  RH  089%=      5-min Rain = 0
KUM1 150001Z 19020KT 02/M00 A3006 RMK A01 T00151001  RH  090%=      5-min Rain = 0
KUM1 150002Z 20021G26KT 02/00 A3006 RMK A01 T00150000  RH  090%=      5-min Rain = 0
KUM1 150003Z 19019G24KT 02/00 A3006 RMK A01 T00150000  RH  090%=      5-min Rain = 0
KUM1 150004Z 19021KT 02/00 A3006 RMK A01 T00150000  RH  090%=      5-min Rain = 0
KUM1 150005Z 19020G25KT 02/00 A3006 RMK A01 T001500-0  RH  090%=      5-min Rain = 0
KUM1 150006Z 20018KT 02/00 A3006 RMK A01 T001500-0  RH  090%=      5-min Rain = 0
KUM1 150007Z 19022KT 01/M00 A3006 RMK A01 T00141001  RH  090%=      5-min Rain = 0
KUM1 150008Z 19018KT 01/M00 A3006 RMK A01 T00141001  RH  090%=      5-min Rain = 0
KUM1 150009Z 19020G25KT 01/M00 A3006 RMK A01 T00141001  RH  090%=      5-min Rain = 0
KUM1 150010Z 19019KT 01/M00 A3006 RMK A01 T00141001  RH  090%=      5-min Rain = 0
KUM1 150011Z 19018KT 01/M00 A3006 RMK A01 T00141001  RH  090%=      5-min Rain = 0
KUM1 150012Z 19018KT 01/M00 A3006 RMK A01 T00141001  RH  090%=      5-min Rain = 0
KUM1 150013Z 19018KT 01/M00 A3006 RMK A01 T00141001  RH  090%=      5-min Rain = 0
KUM1 150014Z 19015KT 01/M00 A3007 RMK A01 T00141001  RH  090%=      5-min Rain = 0
KUM1 150015Z 19014KT 01/00 A3007 RMK A01 T001400-0  RH  090%=      5-min Rain = 0
KUM1 150016Z 19018KT 01/00 A3007 RMK A01 T001400-0  RH  091%=      5-min Rain = 0
KUM1 150017Z 19019KT 01/00 A3007 RMK A01 T00140000  RH  091%=      5-min Rain = 0
KUM1 150018Z 18015KT 01/00 A3007 RMK A01 T00140001  RH  091%=      5-min Rain = 0
KUM1 150019Z 18018G23KT 01/00 A3007 RMK A01 T00140001  RH  091%=      5-min Rain = 0
KUM1 150020Z 19017G23KT 01/00 A3007 RMK A01 T00140001  RH  091%=      5-min Rain = 0
KUM1 150021Z 19019KT 01/00 A3007 RMK A01 T00140001  RH  091%=      5-min Rain = 0
KUM1 150022Z 19018KT 01/00 A3007 RMK A01 T00140001  RH  091%=      5-min Rain = 0
KUM1 150023Z 19015KT 01/00 A3007 RMK A01 T00140001  RH  091%=      5-min Rain = 0
KUM1 150024Z 18016G22KT 01/00 A3007 RMK A01 T00130000  RH  091%=      5-min Rain = 0
KUM1 150025Z 18018KT 01/00 A3007 RMK A01 T00130000  RH  091%=      5-min Rain = 0
KUM1 150026Z 19018G23KT 01/00 A3007 RMK A01 T00130000  RH  091%=      5-min Rain = 0
KUM1 150027Z 19018G23KT 01/00 A3007 RMK A01 T00130000  RH  091%=      5-min Rain = 0
KUM1 150028Z 19021KT 01/00 A3007 RMK A01 T00130000  RH  091%=      5-min Rain = 0
KUM1 150029Z 19017KT 01/00 A3007 RMK A01 T001300-0  RH  091%=      5-min Rain = 0
KUM1 150030Z 19021KT 01/00 A3007 RMK A01 T001300-0  RH  091%=      5-min Rain = 0
KUM1 150031Z 19019G24KT 01/00 A3007 RMK A01 T001300-0  RH  091%=      5-min Rain = 0
KUM1 150032Z 18020KT 01/00 A3007 RMK A01 T00130000  RH  091%=      5-min Rain = 0
KUM1 150033Z 18019KT 01/00 A3006 RMK A01 T00130000  RH  091%=      5-min Rain = 0
KUM1 150034Z 18018KT 01/00 A3007 RMK A01 T00130000  RH  091%=      5-min Rain = 0
KUM1 150035Z 18019KT 01/00 A3007 RMK A01 T00130000  RH  091%=      5-min Rain = 0
KUM1 150036Z 18018G23KT 01/00 A3007 RMK A01 T00130000  RH  091%=      5-min Rain = 0
KUM1 150037Z 19021G26KT 01/00 A3006 RMK A01 T00130000  RH  091%=      5-min Rain = 0
KUM1 150038Z 19019KT 01/00 A3007 RMK A01 T001300-0  RH  091%=      5-min Rain = 0
KUM1 150039Z 18019KT 01/00 A3007 RMK A01 T001300-0  RH  091%=      5-min Rain = 0
KUM1 150040Z 19017KT 01/00 A3006 RMK A01 T001300-0  RH  091%=      5-min Rain = 0
KUM1 150041Z 18016G21KT 01/00 A3006 RMK A01 T001300-0  RH  091%=      5-min Rain = 0
KUM1 150042Z 18018KT 01/00 A3006 RMK A01 T00130000  RH  091%=      5-min Rain = 0
KUM1 150043Z 19016KT 01/00 A3006 RMK A01 T00130000  RH  091%=      5-min Rain = 0
KUM1 150044Z 18014KT 01/00 A3006 RMK A01 T00130000  RH  091%=      5-min Rain = 0
KUM1 150045Z 19017KT 01/00 A3006 RMK A01 T00120000  RH  092%=      5-min Rain = 0
KUM1 150046Z 19017KT 01/00 A3006 RMK A01 T001200-0  RH  092%=      5-min Rain = 0
KUM1 150047Z 18017KT 01/00 A3006 RMK A01 T001200-0  RH  092%=      5-min Rain = 0
KUM1 150048Z 19018KT 01/00 A3006 RMK A01 T001200-0  RH  092%=      5-min Rain = 0
KUM1 150049Z 18020KT 01/00 A3006 RMK A01 T001200-0  RH  092%=      5-min Rain = 0
KUM1 150050Z 18019KT 01/00 A3006 RMK A01 T001100-0  RH  092%=      5-min Rain = 0
KUM1 150051Z 19020KT 01/00 A3006 RMK A01 T001100-0  RH  092%=      5-min Rain = 0
KUM1 150052Z 19023KT 01/M00 A3006 RMK A01 T00111001  RH  092%=      5-min Rain = 0
KUM1 150053Z 18023KT 01/00 A3006 RMK A01 T001100-0  RH  092%=      5-min Rain = 0
KUM1 150054Z 19021KT 01/00 A3007 RMK A01 T001100-0  RH  092%=      5-min Rain = 0
KUM1 150055Z 19021G26KT 01/00 A3007 RMK A01 T001000-0  RH  093%=      5-min Rain = 0
KUM1 150056Z 19018G23KT 01/00 A3007 RMK A01 T001000-0  RH  093%=      5-min Rain = 0
KUM1 150057Z 19017KT 01/00 A3007 RMK A01 T001000-0  RH  093%=      5-min Rain = 0
KUM1 150058Z 19015G20KT 01/00 A3007 RMK A01 T001000-0  RH  093%=      5-min Rain = 0
KUM1 150059Z 19019KT 01/00 A3007 RMK A01 T001000-0  RH  093%=      5-min Rain = 0
KUM1 150100Z 19017G22KT 01/00 A3007 RMK A01 T001000-0  RH  093%=      5-min Rain = 0
KUM1 150101Z 19017KT 01/00 A3007 RMK A01 T001000-0  RH  093%=      5-min Rain = 0
KUM1 150102Z 19014KT 01/00 A3007 RMK A01 T001000-0  RH  093%=      5-min Rain = 0
KUM1 150103Z 19018KT 01/M00 A3007 RMK A01 T00091001  RH  093%=      5-min Rain = 0
KUM1 150104Z 19019G25KT 01/00 A3007 RMK A01 T001000-0  RH  093%=      5-min Rain = 0
KUM1 150105Z 19020KT 01/00 A3007 RMK A01 T001000-0  RH  093%=      5-min Rain = 0
KUM1 150106Z 20016KT 01/00 A3007 RMK A01 T001000-0  RH  093%=      5-min Rain = 0
KUM1 150107Z 19016KT 01/M00 A3007 RMK A01 T00101001  RH  093%=      5-min Rain = 0
KUM1 150108Z 19015KT 01/M00 A3007 RMK A01 T00101001  RH  093%=      5-min Rain = 0
KUM1 150109Z 19018KT 01/M00 A3007 RMK A01 T00101001  RH  093%=      5-min Rain = 0
KUM1 150110Z 19018G24KT 01/M00 A3007 RMK A01 T00091001  RH  093%=      5-min Rain = 0
KUM1 150111Z 20021KT 01/M00 A3007 RMK A01 T00101001  RH  093%=      5-min Rain = 0
KUM1 150112Z 20019G24KT 01/M00 A3007 RMK A01 T00091001  RH  093%=      5-min Rain = 0
KUM1 150113Z 20017KT 01/M00 A3007 RMK A01 T00101001  RH  093%=      5-min Rain = 0
KUM1 150114Z 19016G21KT 01/M00 A3007 RMK A01 T00091001  RH  093%=      5-min Rain = 0
KUM1 150115Z 20018KT 01/M00 A3007 RMK A01 T00091001  RH  093%=      5-min Rain = 0
KUM1 150116Z 19018KT 01/M00 A3007 RMK A01 T00101001  RH  093%=      5-min Rain = 0
KUM1 150117Z 19015G20KT 01/M00 A3007 RMK A01 T00101001  RH  093%=      5-min Rain = 0
KUM1 150118Z 19016G22KT 01/M00 A3007 RMK A01 T00091001  RH  093%=      5-min Rain = 0
KUM1 150119Z 19019KT 01/M00 A3006 RMK A01 T00091001  RH  093%=      5-min Rain = 0
KUM1 150120Z 19017KT 01/00 A3006 RMK A01 T000900-0  RH  093%=      5-min Rain = 0
KUM1 150121Z 20021G26KT 01/00 A3006 RMK A01 T000900-0  RH  094%=      5-min Rain = 0
KUM1 150122Z 19020KT 01/00 A3006 RMK A01 T00090000  RH  094%=      5-min Rain = 0
KUM1 150123Z 19024G29KT 01/00 A3006 RMK A01 T00090000  RH  094%=      5-min Rain = 0
KUM1 150124Z 19022G27KT 01/00 A3006 RMK A01 T00090000  RH  094%=      5-min Rain = 0
KUM1 150125Z 19024KT 01/00 A3006 RMK A01 T00090000  RH  094%=      5-min Rain = 0
KUM1 150126Z 19024G29KT 01/00 A3006 RMK A01 T00090000  RH  094%=      5-min Rain = 0
KUM1 150127Z 19022G27KT 01/00 A3006 RMK A01 T00090000  RH  094%=      5-min Rain = 0
KUM1 150128Z 20025G30KT 01/00 A3006 RMK A01 T000900-0  RH  094%=      5-min Rain = 0
KUM1 150129Z 19024G29KT 01/00 A3006 RMK A01 T000900-0  RH  094%=      5-min Rain = 0
KUM1 150130Z 19023KT 01/M00 A3006 RMK A01 T00091001  RH  094%=      5-min Rain = 0
KUM1 150131Z 19020KT 01/M00 A3006 RMK A01 T00091001  RH  094%=      5-min Rain = 0
KUM1 150132Z 19021KT 01/M00 A3006 RMK A01 T00091001  RH  094%=      5-min Rain = 0
KUM1 150133Z 19023G28KT 01/00 A3006 RMK A01 T000900-0  RH  094%=      5-min Rain = 0
KUM1 150134Z 19025KT 01/M00 A3006 RMK A01 T00091001  RH  094%=      5-min Rain = 0
KUM1 150135Z 19024G29KT 01/M00 A3006 RMK A01 T00081001  RH  094%=      5-min Rain = 0
KUM1 150136Z 20021KT 01/M00 A3006 RMK A01 T00081001  RH  094%=      5-min Rain = 0
KUM1 150137Z 19023KT 01/M00 A3006 RMK A01 T00081001  RH  094%=      5-min Rain = 0
KUM1 150138Z 19025KT 01/00 A3006 RMK A01 T000800-0  RH  094%=      5-min Rain = 0
KUM1 150139Z 19020G26KT 01/M00 A3006 RMK A01 T00081001  RH  094%=      5-min Rain = 0
KUM1 150140Z 20021G29KT 01/00 A3006 RMK A01 T000800-0  RH  094%=      5-min Rain = 0
KUM1 150141Z 19026KT 01/00 A3006 RMK A01 T000800-0  RH  094%=      5-min Rain = 0
KUM1 150142Z 19023KT 01/M00 A3006 RMK A01 T00081001  RH  094%=      5-min Rain = 0
KUM1 150143Z 20022KT 01/00 A3006 RMK A01 T000800-0  RH  094%=      5-min Rain = 0
KUM1 150144Z 19024KT 01/00 A3006 RMK A01 T000800-0  RH  094%=      5-min Rain = 0
KUM1 150145Z 20026KT 01/00 A3006 RMK A01 T000800-0  RH  094%=      5-min Rain = 0
KUM1 150146Z 19021G27KT 01/00 A3006 RMK A01 T000800-0  RH  094%=      5-min Rain = 0
KUM1 150147Z 19022G28KT 01/00 A3006 RMK A01 T000800-0  RH  094%=      5-min Rain = 0
KUM1 150148Z 20021G27KT 01/00 A3007 RMK A01 T000800-0  RH  094%=      5-min Rain = 0
KUM1 150149Z 20022G27KT 01/00 A3007 RMK A01 T000800-0  RH  094%=      5-min Rain = 0
KUM1 150150Z 20026G31KT 01/00 A3007 RMK A01 T000800-0  RH  094%=      5-min Rain = 0
KUM1 150151Z 20024G29KT 01/00 A3007 RMK A01 T00090000  RH  094%=      5-min Rain = 0
KUM1 150152Z 19023KT 01/00 A3007 RMK A01 T000800-0  RH  094%=      5-min Rain = 0
KUM1 150153Z 19020KT 01/00 A3007 RMK A01 T000800-0  RH  094%=      5-min Rain = 0
KUM1 150154Z 20020G26KT 01/00 A3007 RMK A01 T000800-0  RH  094%=      5-min Rain = 0
KUM1 150155Z 19022KT 01/M00 A3007 RMK A01 T00081001  RH  094%=      5-min Rain = 0
KUM1 150156Z 19018KT 01/M00 A3007 RMK A01 T00081001  RH  094%=      5-min Rain = 0
KUM1 150157Z 19018KT 01/00 A3007 RMK A01 T000800-0  RH  094%=      5-min Rain = 0
KUM1 150158Z 19017KT 01/00 A3007 RMK A01 T000800-0  RH  094%=      5-min Rain = 0
KUM1 150159Z 20021G26KT 01/00 A3007 RMK A01 T000800-0  RH  094%=      5-min Rain = 0
KUM1 150200Z 20021KT 01/M00 A3007 RMK A01 T00081001  RH  094%=      5-min Rain = 0
KUM1 150201Z 20018KT 01/00 A3007 RMK A01 T000800-0  RH  094%=      5-min Rain = 0
KUM1 150202Z 20022KT 01/00 A3007 RMK A01 T000800-0  RH  094%=      5-min Rain = 0
KUM1 150203Z 19022KT 01/00 A3007 RMK A01 T000800-0  RH  094%=      5-min Rain = 0
KUM1 150204Z 20020G27KT 01/00 A3007 RMK A01 T000800-0  RH  094%=      5-min Rain = 0
KUM1 150205Z 19024G29KT 01/00 A3007 RMK A01 T00080000  RH  094%=      5-min Rain = 0
KUM1 150206Z 20022KT 01/00 A3007 RMK A01 T000800-0  RH  094%=      5-min Rain = 0
KUM1 150207Z 20021KT 01/00 A3007 RMK A01 T00080000  RH  094%=      5-min Rain = 0
KUM1 150208Z 19021KT 01/00 A3007 RMK A01 T000800-0  RH  094%=      5-min Rain = 0
KUM1 150209Z 20020KT 01/00 A3007 RMK A01 T000800-0  RH  094%=      5-min Rain = 0
KUM1 150210Z 20023G28KT 01/00 A3007 RMK A01 T000800-0  RH  094%=      5-min Rain = 0
KUM1 150211Z 20024KT 01/00 A3007 RMK A01 T000800-0  RH  094%=      5-min Rain = 0
KUM1 150212Z 19023G28KT 01/00 A3007 RMK A01 T000800-0  RH  094%=      5-min Rain = 0
KUM1 150213Z 20023KT 01/00 A3007 RMK A01 T000800-0  RH  094%=      5-min Rain = 0
KUM1 150214Z 19023KT 01/00 A3007 RMK A01 T000800-0  RH  094%=      5-min Rain = 0
KUM1 150215Z 20021KT 01/00 A3007 RMK A01 T000800-0  RH  094%=      5-min Rain = 0
KUM1 150216Z 19022KT 01/M00 A3007 RMK A01 T00081001  RH  094%=      5-min Rain = 0
KUM1 150217Z 19020G27KT 01/M00 A3007 RMK A01 T00081001  RH  094%=      5-min Rain = 0
KUM1 150218Z 20021KT 01/M00 A3007 RMK A01 T00071001  RH  094%=      5-min Rain = 0
KUM1 150219Z 20024G30KT 01/M00 A3007 RMK A01 T00071001  RH  094%=      5-min Rain = 0
KUM1 150220Z 19023KT 01/M00 A3007 RMK A01 T00071001  RH  094%=      5-min Rain = 0
KUM1 150221Z 19022G27KT 01/M00 A3007 RMK A01 T00071001  RH  094%=      5-min Rain = 0
KUM1 150222Z 19022KT 01/M00 A3007 RMK A01 T00071001  RH  094%=      5-min Rain = 0
KUM1 150223Z 19019KT 01/M00 A3007 RMK A01 T00071001  RH  094%=      5-min Rain = 0
KUM1 150224Z 20022KT 01/M00 A3007 RMK A01 T00071001  RH  095%=      5-min Rain = 0
KUM1 150225Z 19019G24KT 01/M00 A3007 RMK A01 T00071001  RH  095%=      5-min Rain = 0
KUM1 150226Z 20022G27KT 01/M00 A3007 RMK A01 T00071001  RH  095%=      5-min Rain = 0
KUM1 150227Z 20021KT 01/00 A3007 RMK A01 T00080000  RH  095%=      5-min Rain = 0
KUM1 150228Z 20023KT 01/00 A3007 RMK A01 T000700-0  RH  095%=      5-min Rain = 0
KUM1 150229Z 19022G28KT 01/00 A3007 RMK A01 T000700-0  RH  095%=      5-min Rain = 0
KUM1 150230Z 20023KT 01/00 A3007 RMK A01 T000800-0  RH  095%=      5-min Rain = 0
KUM1 150231Z 20021KT 01/00 A3007 RMK A01 T000800-0  RH  095%=      5-min Rain = 0
KUM1 150232Z 20021G26KT 01/00 A3007 RMK A01 T000800-0  RH  094%=      5-min Rain = 0
KUM1 150233Z 19021KT 01/00 A3007 RMK A01 T00080000  RH  094%=      5-min Rain = 0
KUM1 150234Z 20019KT 01/00 A3007 RMK A01 T00080000  RH  094%=      5-min Rain = 0
KUM1 150235Z 19023KT 01/00 A3007 RMK A01 T00080000  RH  094%=      5-min Rain = 0
KUM1 150236Z 20020KT 01/00 A3007 RMK A01 T000800-0  RH  094%=      5-min Rain = 0
KUM1 150237Z 20020G26KT 01/00 A3007 RMK A01 T000800-0  RH  094%=      5-min Rain = 0
KUM1 150238Z 20022KT 01/00 A3007 RMK A01 T00080000  RH  094%=      5-min Rain = 0
KUM1 150239Z 20021KT 01/00 A3007 RMK A01 T00080000  RH  094%=      5-min Rain = 0
KUM1 150240Z 20017KT 01/00 A3007 RMK A01 T00080000  RH  094%=      5-min Rain = 0
KUM1 150241Z 20017KT 01/00 A3007 RMK A01 T00080000  RH  094%=      5-min Rain = 0
KUM1 150242Z 20022KT 01/00 A3007 RMK A01 T00080000  RH  094%=      5-min Rain = 0
KUM1 150243Z 20021G26KT 01/00 A3007 RMK A01 T00080000  RH  094%=      5-min Rain = 0
KUM1 150244Z 20022KT 01/00 A3007 RMK A01 T00080000  RH  094%=      5-min Rain = 0
KUM1 150245Z 20022KT 01/00 A3007 RMK A01 T000800-0  RH  094%=      5-min Rain = 0
KUM1 150246Z 20019G26KT 01/00 A3007 RMK A01 T00080000  RH  094%=      5-min Rain = 0
KUM1 150247Z 20020KT 01/00 A3007 RMK A01 T00080000  RH  094%=      5-min Rain = 0
KUM1 150248Z 20018G24KT 01/00 A3007 RMK A01 T000800-0  RH  094%=      5-min Rain = 0
KUM1 150249Z 20020G25KT 01/00 A3007 RMK A01 T000800-0  RH  094%=      5-min Rain = 0
KUM1 150250Z 20019KT 01/00 A3007 RMK A01 T000800-0  RH  094%=      5-min Rain = 0
KUM1 150251Z 20019G25KT 01/00 A3007 RMK A01 T000800-0  RH  094%=      5-min Rain = 0
KUM1 150252Z 20020KT 01/00 A3007 RMK A01 T000800-0  RH  094%=      5-min Rain = 0
KUM1 150253Z 20019KT 01/00 A3007 RMK A01 T000800-0  RH  094%=      5-min Rain = 0
KUM1 150254Z 20019KT 01/00 A3007 RMK A01 T000800-0  RH  095%=      5-min Rain = 0
KUM1 150255Z 20017G23KT 01/00 A3007 RMK A01 T00080000  RH  095%=      5-min Rain = 0
KUM1 150256Z 20018KT 01/00 A3008 RMK A01 T000800-0  RH  095%=      5-min Rain = 0
KUM1 150257Z 20018KT 01/00 A3008 RMK A01 T000800-0  RH  095%=      5-min Rain = 0
KUM1 150258Z 20017KT 01/00 A3008 RMK A01 T00080000  RH  095%=      5-min Rain = 0
KUM1 150259Z 21016KT 01/00 A3008 RMK A01 T00080000  RH  095%=      5-min Rain = 0
KUM1 150300Z 20015G21KT 01/00 A3008 RMK A01 T00080000  RH  095%=      5-min Rain = 0
KUM1 150301Z 20017G22KT 01/00 A3008 RMK A01 T00080000  RH  095%=      5-min Rain = 0
KUM1 150302Z 21018KT 01/00 A3008 RMK A01 T00080000  RH  095%=      5-min Rain = 0
KUM1 150303Z 20016G22KT 01/00 A3008 RMK A01 T00080001  RH  095%=      5-min Rain = 0
KUM1 150304Z 21016KT 01/00 A3008 RMK A01 T00080001  RH  095%=      5-min Rain = 0
KUM1 150305Z 21016KT 01/00 A3008 RMK A01 T00080001  RH  095%=      5-min Rain = 0
KUM1 150306Z 21014G19KT 01/00 A3008 RMK A01 T00080001  RH  095%=      5-min Rain = 0
KUM1 150307Z 21015G21KT 01/00 A3008 RMK A01 T00080001  RH  095%=      5-min Rain = 0
KUM1 150308Z 21017KT 01/00 A3008 RMK A01 T00080001  RH  095%=      5-min Rain = 0
KUM1 150309Z 21018G24KT 01/00 A3008 RMK A01 T00080001  RH  095%=      5-min Rain = 0
KUM1 150310Z 20017KT 01/00 A3008 RMK A01 T00090001  RH  095%=      5-min Rain = 0
KUM1 150311Z 21015G20KT 01/00 A3008 RMK A01 T00090002  RH  095%=      5-min Rain = 0
KUM1 150312Z 21017KT 01/00 A3008 RMK A01 T00090001  RH  095%=      5-min Rain = 0
KUM1 150313Z 21020KT 01/00 A3008 RMK A01 T00090002  RH  095%=      5-min Rain = 0
KUM1 150314Z 21018KT 01/00 A3008 RMK A01 T00090002  RH  095%=      5-min Rain = 0
KUM1 150315Z 20018KT 01/00 A3008 RMK A01 T00090002  RH  095%=      5-min Rain = 0
KUM1 150316Z 20019KT 01/00 A3008 RMK A01 T00090002  RH  095%=      5-min Rain = 0
KUM1 150317Z 20021KT 01/00 A3008 RMK A01 T00080002  RH  095%=      5-min Rain = 0
KUM1 150318Z 20019G24KT 01/00 A3008 RMK A01 T00080001  RH  095%=      5-min Rain = 0
KUM1 150319Z 20020KT 01/00 A3008 RMK A01 T00080002  RH  095%=      5-min Rain = 0
KUM1 150320Z 20018G24KT 01/00 A3008 RMK A01 T00080002  RH  095%=      5-min Rain = 0
KUM1 150321Z 20022KT 01/00 A3008 RMK A01 T00080002  RH  095%=      5-min Rain = 0
KUM1 150322Z 20018KT 01/00 A3008 RMK A01 T00080002  RH  095%=      5-min Rain = 0
KUM1 150323Z 20021G26KT 01/00 A3008 RMK A01 T00080002  RH  096%=      5-min Rain = 0
KUM1 150324Z 21021KT 01/00 A3008 RMK A01 T00080002  RH  096%=      5-min Rain = 0
KUM1 150325Z 20022KT 01/00 A3008 RMK A01 T00080002  RH  096%=      5-min Rain = 0
KUM1 150326Z 20020KT 01/00 A3007 RMK A01 T00080002  RH  096%=      5-min Rain = 0
KUM1 150327Z 20021KT 01/00 A3007 RMK A01 T00080002  RH  095%=      5-min Rain = 0
KUM1 150328Z 20018KT 01/00 A3007 RMK A01 T00080002  RH  095%=      5-min Rain = 0
KUM1 150329Z 20021KT 01/00 A3007 RMK A01 T00080002  RH  095%=      5-min Rain = 0
KUM1 150330Z 20022KT 01/00 A3007 RMK A01 T00080002  RH  095%=      5-min Rain = 0
KUM1 150331Z 20021KT 01/00 A3007 RMK A01 T00080002  RH  095%=      5-min Rain = 0
KUM1 150332Z 20023KT 01/00 A3007 RMK A01 T00080001  RH  095%=      5-min Rain = 0
KUM1 150333Z 20020KT 01/00 A3007 RMK A01 T00080002  RH  095%=      5-min Rain = 0
KUM1 150334Z 20022KT 01/00 A3007 RMK A01 T00080001  RH  095%=      5-min Rain = 0
KUM1 150335Z 20021KT 01/00 A3007 RMK A01 T00080001  RH  095%=      5-min Rain = 0
KUM1 150336Z 20021KT 01/00 A3007 RMK A01 T00080001  RH  095%=      5-min Rain = 0
KUM1 150337Z 20021KT 01/00 A3008 RMK A01 T00080002  RH  095%=      5-min Rain = 0
KUM1 150338Z 20022KT 01/00 A3007 RMK A01 T00080001  RH  095%=      5-min Rain = 0
KUM1 150339Z 20019KT 01/00 A3008 RMK A01 T00080002  RH  095%=      5-min Rain = 0
KUM1 150340Z 20020G25KT 01/00 A3008 RMK A01 T00080002  RH  095%=      5-min Rain = 0
KUM1 150341Z 20019KT 01/00 A3008 RMK A01 T00080001  RH  095%=      5-min Rain = 0
KUM1 150342Z 20018KT 01/00 A3008 RMK A01 T00080002  RH  095%=      5-min Rain = 0
KUM1 150343Z 20019KT 01/00 A3008 RMK A01 T00080002  RH  095%=      5-min Rain = 0
KUM1 150344Z 20018KT 01/00 A3008 RMK A01 T00080002  RH  095%=      5-min Rain = 0
KUM1 150345Z 21020KT 01/00 A3008 RMK A01 T00080001  RH  095%=      5-min Rain = 0
KUM1 150346Z 21020KT 01/00 A3008 RMK A01 T00080001  RH  095%=      5-min Rain = 0
KUM1 150347Z 21019KT 01/00 A3008 RMK A01 T00080001  RH  095%=      5-min Rain = 0
KUM1 150348Z 21021KT 01/00 A3008 RMK A01 T00070001  RH  095%=      5-min Rain = 0
KUM1 150349Z 21019KT 01/00 A3008 RMK A01 T00070001  RH  095%=      5-min Rain = 0
KUM1 150350Z 22017KT 01/00 A3008 RMK A01 T00070000  RH  095%=      5-min Rain = 0
KUM1 150351Z 22016KT 01/00 A3008 RMK A01 T000700-0  RH  095%=      5-min Rain = 0
KUM1 150352Z 21017KT 01/M00 A3008 RMK A01 T00061001  RH  095%=      5-min Rain = 0
KUM1 150353Z 22017KT 01/M00 A3008 RMK A01 T00061001  RH  095%=      5-min Rain = 0
KUM1 150354Z 22017KT 01/00 A3008 RMK A01 T000600-0  RH  095%=      5-min Rain = 0
KUM1 150355Z 22019KT 01/00 A3008 RMK A01 T000600-0  RH  095%=      5-min Rain = 0
KUM1 150356Z 22018KT 01/00 A3008 RMK A01 T000700-0  RH  095%=      5-min Rain = 0
KUM1 150357Z 22019KT 01/00 A3008 RMK A01 T000600-0  RH  095%=      5-min Rain = 0
KUM1 150358Z 22017KT 01/00 A3008 RMK A01 T00070000  RH  095%=      5-min Rain = 0
KUM1 150359Z 22019KT 01/00 A3008 RMK A01 T000700-0  RH  095%=      5-min Rain = 0
KUM1 150400Z 22018KT 01/00 A3008 RMK A01 T000700-0  RH  095%=      5-min Rain = 0
KUM1 150401Z 22016KT 01/00 A3008 RMK A01 T000700-0  RH  095%=      5-min Rain = 0
KUM1 150402Z 22017KT 01/M00 A3008 RMK A01 T00061001  RH  095%=      5-min Rain = 0
KUM1 150403Z 21019KT 01/M00 A3007 RMK A01 T00061001  RH  095%=      5-min Rain = 0
KUM1 150404Z 22018KT 01/M00 A3008 RMK A01 T00061001  RH  095%=      5-min Rain = 0
KUM1 150405Z 22018KT 01/00 A3008 RMK A01 T000700-0  RH  095%=      5-min Rain = 0
KUM1 150406Z 22016KT 01/00 A3008 RMK A01 T000700-0  RH  095%=      5-min Rain = 0
KUM1 150407Z 22013KT 01/M00 A3008 RMK A01 T00071001  RH  095%=      5-min Rain = 0
KUM1 150408Z 23018KT 01/00 A3008 RMK A01 T000700-0  RH  095%=      5-min Rain = 0
KUM1 150409Z 22016KT 01/00 A3008 RMK A01 T00070000  RH  095%=      5-min Rain = 0
KUM1 150410Z 23016KT 01/00 A3008 RMK A01 T000700-0  RH  095%=      5-min Rain = 0
KUM1 150411Z 22016KT 01/00 A3008 RMK A01 T000800-0  RH  095%=      5-min Rain = 0
KUM1 150412Z 23015KT 01/00 A3008 RMK A01 T00080000  RH  094%=      5-min Rain = 0
KUM1 150413Z 22015KT 01/00 A3008 RMK A01 T000800-0  RH  094%=      5-min Rain = 0
KUM1 150414Z 23017KT 01/00 A3008 RMK A01 T000800-0  RH  094%=      5-min Rain = 0
KUM1 150415Z 23016KT 01/00 A3008 RMK A01 T00090001  RH  094%=      5-min Rain = 0
KUM1 150416Z 23015KT 01/00 A3008 RMK A01 T00090000  RH  094%=      5-min Rain = 0
KUM1 150417Z 23015KT 01/00 A3007 RMK A01 T00100001  RH  094%=      5-min Rain = 0
KUM1 150418Z 23016KT 01/00 A3008 RMK A01 T00100001  RH  094%=      5-min Rain = 0
KUM1 150419Z 23016KT 01/00 A3008 RMK A01 T00110001  RH  093%=      5-min Rain = 0
KUM1 150420Z 22016KT 01/00 A3008 RMK A01 T00110001  RH  093%=      5-min Rain = 0
KUM1 150421Z 22015KT 01/00 A3008 RMK A01 T00110001  RH  093%=      5-min Rain = 0
KUM1 150422Z 22017KT 01/00 A3008 RMK A01 T00110001  RH  093%=      5-min Rain = 0
KUM1 150423Z 22016KT 01/00 A3008 RMK A01 T00110000  RH  093%=      5-min Rain = 0
KUM1 150424Z 22017KT 01/00 A3008 RMK A01 T00110001  RH  093%=      5-min Rain = 0
KUM1 150425Z 22016KT 01/00 A3008 RMK A01 T00110001  RH  093%=      5-min Rain = 0
KUM1 150426Z 22017KT 01/00 A3008 RMK A01 T00120001  RH  093%=      5-min Rain = 0
KUM1 150427Z 22015KT 01/00 A3008 RMK A01 T00120001  RH  092%=      5-min Rain = 0
KUM1 150428Z 22014KT 01/00 A3007 RMK A01 T00120001  RH  092%=      5-min Rain = 0
KUM1 150429Z 22014KT 01/00 A3008 RMK A01 T00130001  RH  092%=      5-min Rain = 0
KUM1 150430Z 22015KT 01/00 A3008 RMK A01 T00130002  RH  092%=      5-min Rain = 0
KUM1 150431Z 23014KT 01/00 A3008 RMK A01 T00140002  RH  092%=      5-min Rain = 0
KUM1 150432Z 23014KT 01/00 A3008 RMK A01 T00140002  RH  092%=      5-min Rain = 0
KUM1 150433Z 23013G18KT 02/00 A3008 RMK A01 T00150002  RH  092%=      5-min Rain = 0
KUM1 150434Z 23011KT 02/00 A3008 RMK A01 T00150002  RH  091%=      5-min Rain = 0
KUM1 150435Z 23012KT 01/00 A3008 RMK A01 T00140002  RH  091%=      5-min Rain = 0
KUM1 150436Z 23011KT 01/00 A3008 RMK A01 T00140002  RH  091%=      5-min Rain = 0
KUM1 150437Z 24011KT 01/00 A3008 RMK A01 T00140002  RH  092%=      5-min Rain = 0
KUM1 150438Z 24012KT 01/00 A3008 RMK A01 T00140002  RH  092%=      5-min Rain = 0
KUM1 150439Z 24012KT 01/00 A3008 RMK A01 T00140002  RH  092%=      5-min Rain = 0
KUM1 150440Z 24012KT 01/00 A3008 RMK A01 T00140002  RH  092%=      5-min Rain = 0
KUM1 150441Z 24013KT 02/00 A3009 RMK A01 T00150003  RH  092%=      5-min Rain = 0
KUM1 150442Z 24012KT 02/00 A3009 RMK A01 T00150003  RH  092%=      5-min Rain = 0
KUM1 150443Z 24013KT 02/00 A3009 RMK A01 T00160004  RH  092%=      5-min Rain = 0
KUM1 150444Z 24013KT 02/00 A3009 RMK A01 T00160004  RH  091%=      5-min Rain = 0
KUM1 150445Z 24013KT 02/00 A3009 RMK A01 T00170004  RH  091%=      5-min Rain = 0
KUM1 150446Z 24011KT 02/00 A3009 RMK A01 T00170004  RH  091%=      5-min Rain = 0
KUM1 150447Z 24011KT 02/00 A3008 RMK A01 T00170004  RH  091%=      5-min Rain = 0
KUM1 150448Z 24012KT 02/00 A3008 RMK A01 T00180004  RH  091%=      5-min Rain = 0
KUM1 150449Z 24012KT 02/00 A3008 RMK A01 T00180004  RH  091%=      5-min Rain = 0
KUM1 150450Z 24011KT 02/00 A3008 RMK A01 T00180004  RH  091%=      5-min Rain = 0
KUM1 150451Z 24011KT 02/00 A3008 RMK A01 T00180004  RH  091%=      5-min Rain = 0
KUM1 150452Z 24012KT 02/01 A3008 RMK A01 T00180005  RH  091%=      5-min Rain = 0
KUM1 150453Z 24012KT 02/01 A3008 RMK A01 T00190005  RH  091%=      5-min Rain = 0
KUM1 150454Z 24011KT 02/01 A3008 RMK A01 T00190005  RH  091%=      5-min Rain = 0
KUM1 150455Z 24012KT 02/01 A3008 RMK A01 T00190005  RH  090%=      5-min Rain = 0
KUM1 150456Z 24011KT 02/01 A3008 RMK A01 T00190005  RH  090%=      5-min Rain = 0
KUM1 150457Z 24010KT 02/01 A3008 RMK A01 T00190005  RH  090%=      5-min Rain = 0
KUM1 150458Z 24012KT 02/00 A3008 RMK A01 T00180004  RH  090%=      5-min Rain = 0
KUM1 150459Z 24012KT 02/01 A3008 RMK A01 T00180005  RH  091%=      5-min Rain = 0
KUM1 150500Z 24013KT 02/01 A3008 RMK A01 T00190005  RH  091%=      5-min Rain = 0
KUM1 150501Z 23011KT 02/01 A3008 RMK A01 T00190006  RH  091%=      5-min Rain = 0
KUM1 150502Z 24012KT 02/01 A3008 RMK A01 T00190005  RH  091%=      5-min Rain = 0
KUM1 150503Z 23011KT 02/01 A3008 RMK A01 T00190005  RH  091%=      5-min Rain = 0
KUM1 150504Z 23012KT 02/01 A3008 RMK A01 T00190005  RH  091%=      5-min Rain = 0
KUM1 150505Z 23012KT 02/01 A3008 RMK A01 T00190006  RH  091%=      5-min Rain = 0
KUM1 150506Z 23012KT 02/01 A3008 RMK A01 T00190006  RH  091%=      5-min Rain = 0
KUM1 150507Z 23014KT 02/01 A3008 RMK A01 T00200006  RH  091%=      5-min Rain = 0
KUM1 150508Z 22012KT 02/01 A3008 RMK A01 T00200006  RH  091%=      5-min Rain = 0
KUM1 150509Z 23014KT 02/01 A3007 RMK A01 T00200006  RH  091%=      5-min Rain = 0
KUM1 150510Z 23012KT 02/01 A3007 RMK A01 T00200006  RH  091%=      5-min Rain = 0
KUM1 150511Z 22015KT 02/01 A3007 RMK A01 T00200006  RH  090%=      5-min Rain = 0
KUM1 150512Z 22015G20KT 02/01 A3007 RMK A01 T00190005  RH  091%=      5-min Rain = 0
KUM1 150513Z 22015KT 02/01 A3007 RMK A01 T00190006  RH  091%=      5-min Rain = 0
KUM1 150514Z 22015KT 02/01 A3007 RMK A01 T00190006  RH  091%=      5-min Rain = 0
KUM1 150515Z 22016KT 02/01 A3007 RMK A01 T00190006  RH  091%=      5-min Rain = 0
KUM1 150516Z 22017KT 02/01 A3007 RMK A01 T00200006  RH  091%=      5-min Rain = 0
KUM1 150517Z 22016KT 02/01 A3007 RMK A01 T00200006  RH  091%=      5-min Rain = 0
KUM1 150518Z 22019KT 02/01 A3007 RMK A01 T00200007  RH  091%=      5-min Rain = 0
KUM1 150519Z 22017G22KT 02/01 A3007 RMK A01 T00210007  RH  091%=      5-min Rain = 0
KUM1 150520Z 22019G24KT 02/01 A3007 RMK A01 T00210006  RH  090%=      5-min Rain = 0
KUM1 150521Z 22019KT 02/01 A3006 RMK A01 T00210007  RH  090%=      5-min Rain = 0
KUM1 150522Z 22020KT 02/01 A3006 RMK A01 T00210007  RH  090%=      5-min Rain = 0
KUM1 150523Z 21019KT 02/01 A3006 RMK A01 T00210007  RH  090%=      5-min Rain = 0
KUM1 150524Z 22019KT 02/01 A3006 RMK A01 T00210007  RH  090%=      5-min Rain = 0
KUM1 150525Z 22019KT 02/01 A3006 RMK A01 T00220007  RH  090%=      5-min Rain = 0
KUM1 150526Z 22019G24KT 02/01 A3006 RMK A01 T00220007  RH  090%=      5-min Rain = 0
KUM1 150527Z 21018KT 02/01 A3006 RMK A01 T00220007  RH  090%=      5-min Rain = 0
KUM1 150528Z 21019KT 02/01 A3006 RMK A01 T00220007  RH  090%=      5-min Rain = 0
KUM1 150529Z 21019KT 02/01 A3006 RMK A01 T00220007  RH  090%=      5-min Rain = 0
KUM1 150530Z 21020KT 02/01 A3006 RMK A01 T00220007  RH  090%=      5-min Rain = 0
KUM1 150531Z 21018G23KT 02/01 A3006 RMK A01 T00220007  RH  090%=      5-min Rain = 0
KUM1 150532Z 21019KT 02/01 A3006 RMK A01 T00210007  RH  090%=      5-min Rain = 0
KUM1 150533Z 22020KT 02/01 A3006 RMK A01 T00220007  RH  090%=      5-min Rain = 0
KUM1 150534Z 21019KT 02/01 A3006 RMK A01 T00220007  RH  090%=      5-min Rain = 0
KUM1 150535Z 21019KT 02/01 A3006 RMK A01 T00210007  RH  090%=      5-min Rain = 0
KUM1 150536Z 21019KT 02/01 A3006 RMK A01 T00220007  RH  090%=      5-min Rain = 0
KUM1 150537Z 22018KT 02/01 A3006 RMK A01 T00220007  RH  090%=      5-min Rain = 0
KUM1 150538Z 21017KT 02/01 A3006 RMK A01 T00210006  RH  090%=      5-min Rain = 0
KUM1 150539Z 21022KT 02/01 A3006 RMK A01 T00200006  RH  090%=      5-min Rain = 0
KUM1 150540Z 21017G22KT 02/01 A3005 RMK A01 T00210007  RH  090%=      5-min Rain = 0
KUM1 150541Z 21019KT 02/01 A3005 RMK A01 T00210006  RH  090%=      5-min Rain = 0
KUM1 150542Z 21021KT 02/01 A3005 RMK A01 T00210006  RH  090%=      5-min Rain = 0
KUM1 150543Z 21019KT 02/01 A3005 RMK A01 T00200006  RH  090%=      5-min Rain = 0
KUM1 150544Z 21019KT 02/01 A3005 RMK A01 T00200006  RH  090%=      5-min Rain = 0
KUM1 150545Z 21018KT 02/01 A3005 RMK A01 T00200006  RH  090%=      5-min Rain = 0
KUM1 150546Z 21020KT 02/01 A3005 RMK A01 T00200006  RH  090%=      5-min Rain = 0
KUM1 150547Z 21020KT 02/01 A3005 RMK A01 T00200006  RH  091%=      5-min Rain = 0
KUM1 150548Z 21019KT 02/01 A3005 RMK A01 T00200006  RH  090%=      5-min Rain = 0
KUM1 150549Z 21019KT 02/01 A3005 RMK A01 T00200006  RH  090%=      5-min Rain = 0
KUM1 150550Z 21018KT 02/01 A3005 RMK A01 T00200006  RH  090%=      5-min Rain = 0
KUM1 150551Z 21020KT 02/01 A3005 RMK A01 T00200006  RH  091%=      5-min Rain = 0
KUM1 150552Z 22018G23KT 02/01 A3005 RMK A01 T00190006  RH  091%=      5-min Rain = 0
KUM1 150553Z 22018KT 02/01 A3005 RMK A01 T00190005  RH  091%=      5-min Rain = 0
KUM1 150554Z 22019KT 02/00 A3005 RMK A01 T00180004  RH  091%=      5-min Rain = 0
KUM1 150555Z 22019KT 02/01 A3005 RMK A01 T00180005  RH  091%=      5-min Rain = 0
KUM1 150556Z 22019KT 02/01 A3005 RMK A01 T00180005  RH  091%=      5-min Rain = 0
KUM1 150557Z 22017KT 02/01 A3005 RMK A01 T00180005  RH  091%=      5-min Rain = 0
KUM1 150558Z 22018KT 02/01 A3005 RMK A01 T00180005  RH  091%=      5-min Rain = 0
KUM1 150559Z 22018KT 02/01 A3005 RMK A01 T00180005  RH  091%=      5-min Rain = 0

Page generated in 0.1368 seconds.